| time (UTC) | temp F | wind direction | speed knots | gust knots | rain 1hr in | rain 24hr in | rain mn in | humidity % | barometer mb |
| 20260905194948 | 55 | 273 | 9.6 | 19.1 | 0.00 | 0.00 | 0.00 | 100 | 904.2 |
| 20260905194845 | 55 | 270 | 10.4 | 19.1 | 0.00 | 0.00 | 0.00 | 100 | 905.7 |
| 20260905194738 | 55 | 270 | 10.4 | 19.1 | 0.00 | 0.00 | 0.00 | 100 | 909.3 |
| 20260905194530 | 55 | 267 | 8.7 | 19.1 | 0.00 | 0.00 | 0.00 | 100 | 905.9 |
| 20260905194333 | 55 | 276 | 7.8 | 24.3 | 0.00 | 0.00 | 0.00 | 100 | 909.2 |
| 20260905194123 | 55 | 272 | 9.6 | 23.5 | 0.00 | 0.00 | 0.00 | 100 | 904.6 |
| 20260905193915 | 55 | 266 | 9.6 | 23.5 | 0.00 | 0.00 | 0.00 | 100 | 908.8 |
| 20260905193812 | 55 | 264 | 10.4 | 28.7 | 0.00 | 0.00 | 0.00 | 100 | 904.0 |
| 20260905193705 | 55 | 269 | 10.4 | 28.7 | 0.00 | 0.00 | 0.00 | 100 | 905.6 |
| 20260905193457 | 55 | 271 | 9.6 | 28.7 | 0.00 | 0.00 | 0.00 | 100 | 904.2 |
| 20260905193259 | 55 | 279 | 9.6 | 20.0 | 0.00 | 0.00 | 0.00 | 100 | 905.3 |
| 20260905193248 | 55 | 279 | 9.6 | 20.0 | 0.00 | 0.00 | 0.00 | 100 | 908.5 |
| 20260905193039 | 55 | 282 | 7.8 | 20.0 | 0.00 | 0.00 | 0.00 | 100 | 903.7 |
| 20260905192830 | 55 | 280 | 8.7 | 19.1 | 0.00 | 0.00 | 0.00 | 100 | 906.4 |
| 20260905192727 | 55 | 277 | 9.6 | 20.0 | 0.00 | 0.00 | 0.00 | 100 | 908.3 |
| 20260905192631 | 55 | 278 | 10.4 | 24.3 | 0.00 | 0.00 | 0.00 | 100 | 904.4 |
| 20260905192423 | 55 | 285 | 9.6 | 25.2 | 0.00 | 0.00 | 0.00 | 100 | 909.5 |
| 20260905192215 | 55 | 290 | 9.6 | 25.2 | 0.00 | 0.00 | 0.00 | 100 | 904.3 |
| 20260905192012 | 55 | 281 | 9.6 | 20.0 | 0.00 | 0.00 | 0.00 | 100 | 906.4 |
| 20260905192000 | 55 | 281 | 9.6 | 20.0 | 0.00 | 0.00 | 0.00 | 100 | 903.7 |
| 20260905191751 | 55 | 280 | 10.4 | 20.0 | 0.00 | 0.00 | 0.00 | 100 | 904.2 |
| 20260905191648 | 55 | 283 | 10.4 | 19.1 | 0.00 | 0.00 | 0.00 | 100 | 904.8 |
| 20260905191552 | 55 | 283 | 9.6 | 19.1 | 0.00 | 0.00 | 0.00 | 100 | 904.4 |
| 20260905191345 | 55 | 276 | 9.6 | 24.3 | 0.00 | 0.00 | 0.00 | 100 | 904.0 |
| 20260905191136 | 55 | 263 | 10.4 | 24.3 | 0.00 | 0.00 | 0.00 | 100 | 903.5 |
| 20260905190927 | 55 | 278 | 11.3 | 18.2 | 0.00 | 0.00 | 0.00 | 100 | 904.4 |
| 20260905190730 | 55 | 288 | 12.2 | 26.1 | 0.00 | 0.00 | 0.00 | 100 | 907.1 |
| 20260905190718 | 55 | 288 | 12.2 | 26.1 | 0.00 | 0.00 | 0.00 | 100 | 903.4 |
| 20260905190615 | 55 | 288 | 11.3 | 26.1 | 0.00 | 0.00 | 0.00 | 100 | 903.4 |
| 20260905190508 | 55 | 286 | 11.3 | 26.1 | 0.00 | 0.00 | 0.00 | 100 | 904.0 |
| 20260905190300 | 55 | 282 | 9.6 | 20.0 | 0.00 | 0.00 | 0.00 | 100 | 903.8 |
| 20260905190052 | 55 | 284 | 9.6 | 19.1 | 0.00 | 0.00 | 0.00 | 100 | 906.1 |
| 20260905185854 | 55 | 288 | 9.6 | 20.9 | 0.00 | 0.00 | 0.00 | 100 | 903.5 |
| 20260905185645 | 55 | 288 | 9.6 | 24.3 | 0.00 | 0.00 | 0.00 | 100 | 905.0 |
| 20260905185542 | 55 | 288 | 9.6 | 24.3 | 0.00 | 0.00 | 0.00 | 100 | 905.2 |
| 20260905185447 | 55 | 289 | 10.4 | 24.3 | 0.00 | 0.00 | 0.00 | 100 | 905.2 |
| 20260905185435 | 55 | 289 | 10.4 | 24.3 | 0.00 | 0.00 | 0.00 | 100 | 904.5 |
| 20260905185227 | 55 | 287 | 10.4 | 21.7 | 0.00 | 0.00 | 0.00 | 100 | 905.8 |
| 20260905185019 | 55 | 287 | 10.4 | 23.5 | 0.00 | 0.00 | 0.00 | 100 | 903.7 |
| 20260905184810 | 55 | 290 | 11.3 | 23.5 | 0.00 | 0.00 | 0.00 | 100 | 906.1 |
| 20260905184601 | 55 | 290 | 10.4 | 22.6 | 0.00 | 0.00 | 0.00 | 100 | 905.2 |
| 20260905184458 | 55 | 292 | 8.7 | 23.5 | 0.00 | 0.00 | 0.00 | 100 | 908.4 |
| 20260905184352 | 56 | 288 | 9.6 | 23.5 | 0.00 | 0.00 | 0.00 | 100 | 903.4 |
| 20260905184155 | 55 | 279 | 10.4 | 24.3 | 0.00 | 0.00 | 0.00 | 100 | 903.5 |
| 20260905184143 | 55 | 279 | 10.4 | 24.3 | 0.00 | 0.00 | 0.00 | 100 | 904.2 |
| 20260905183946 | 55 | 283 | 10.4 | 24.3 | 0.00 | 0.00 | 0.00 | 100 | 909.1 |
| 20260905183736 | 55 | 286 | 11.3 | 20.0 | 0.00 | 0.00 | 0.00 | 100 | 904.9 |
| 20260905183527 | 55 | 276 | 10.4 | 22.6 | 0.00 | 0.00 | 0.00 | 100 | 903.7 |
| 20260905183424 | 55 | 278 | 10.4 | 24.3 | 0.00 | 0.00 | 0.00 | 100 | 904.4 |
| 20260905183318 | 55 | 278 | 9.6 | 24.3 | 0.00 | 0.00 | 0.00 | 100 | 906.3 |
| 20260905183109 | 56 | 285 | 11.3 | 24.3 | 0.00 | 0.00 | 0.00 | 100 | 904.6 |
| 20260905182914 | 56 | 277 | 11.3 | 24.3 | 0.00 | 0.00 | 0.00 | 100 | 906.6 |
| 20260905182901 | 56 | 277 | 11.3 | 24.3 | 0.00 | 0.00 | 0.00 | 100 | 903.1 |
| 20260905182652 | 55 | 280 | 10.4 | 21.7 | 0.00 | 0.00 | 0.00 | 100 | 903.8 |
| 20260905182443 | 56 | 283 | 10.4 | 24.3 | 0.00 | 0.00 | 0.00 | 100 | 908.1 |
| 20260905182351 | 55 | 283 | 10.4 | 24.3 | 0.00 | 0.00 | 0.00 | 100 | 904.1 |
| 20260905182244 | 55 | 282 | 9.6 | 22.6 | 0.00 | 0.00 | 0.00 | 100 | 905.5 |
| 20260905182036 | 56 | 281 | 9.6 | 19.1 | 0.00 | 0.00 | 0.00 | 100 | 903.3 |
| 20260905181828 | 55 | 277 | 9.6 | 19.1 | 0.00 | 0.00 | 0.00 | 100 | 904.6 |
| 20260905181630 | 56 | 281 | 8.7 | 18.2 | 0.00 | 0.00 | 0.00 | 100 | 907.1 |
| 20260905181619 | 56 | 281 | 8.7 | 18.2 | 0.00 | 0.00 | 0.00 | 100 | 903.8 |
| 20260905181410 | 55 | 282 | 8.7 | 16.5 | 0.00 | 0.00 | 0.00 | 100 | 904.2 |
| 20260905181307 | 55 | 274 | 8.7 | 20.9 | 0.00 | 0.00 | 0.00 | 100 | 905.2 |
| 20260905181201 | 56 | 272 | 9.6 | 28.7 | 0.00 | 0.00 | 0.00 | 100 | 908.4 |
| 20260905180952 | 55 | 264 | 10.4 | 28.7 | 0.00 | 0.00 | 0.00 | 100 | 903.1 |
| 20260905180744 | 55 | 270 | 8.7 | 19.1 | 0.00 | 0.00 | 0.00 | 100 | 908.2 |
| 20260905180557 | 56 | 269 | 9.6 | 25.2 | 0.00 | 0.00 | 0.00 | 100 | 903.5 |
| 20260905180546 | 56 | 269 | 9.6 | 25.2 | 0.00 | 0.00 | 0.00 | 100 | 903.9 |
| 20260905180337 | 56 | 271 | 11.3 | 27.8 | 0.00 | 0.00 | 0.00 | 100 | 908.1 |
| 20260905180234 | 56 | 271 | 11.3 | 27.8 | 0.00 | 0.00 | 0.00 | 100 | 902.9 |
| 20260905180127 | 55 | 266 | 10.4 | 27.8 | 0.00 | 0.00 | 0.00 | 100 | 902.9 |
| 20260905175919 | 56 | 258 | 10.4 | 21.7 | 0.00 | 0.00 | 0.00 | 100 | 907.0 |
| 20260905175711 | 56 | 260 | 11.3 | 22.6 | 0.00 | 0.00 | 0.00 | 100 | 903.6 |
| 20260905175502 | 56 | 271 | 11.3 | 22.6 | 0.00 | 0.00 | 0.00 | 100 | 902.9 |
| 20260905175253 | 56 | 272 | 10.4 | 22.6 | 0.00 | 0.00 | 0.00 | 100 | 904.0 |
| 20260905175150 | 56 | 272 | 8.7 | 22.6 | 0.00 | 0.00 | 0.00 | 100 | 906.4 |
| 20260905175055 | 56 | 263 | 8.7 | 18.2 | 0.00 | 0.00 | 0.00 | 100 | 906.4 |
| 20260905175044 | 56 | 263 | 8.7 | 18.2 | 0.00 | 0.00 | 0.00 | 100 | 907.4 |
| 20260905174846 | 56 | 259 | 8.7 | 18.2 | 0.00 | 0.00 | 0.00 | 100 | 903.7 |
| 20260905174637 | 56 | 260 | 8.7 | 19.1 | 0.00 | 0.00 | 0.00 | 100 | 906.7 |
| 20260905174429 | 56 | 268 | 8.7 | 20.0 | 0.00 | 0.00 | 0.00 | 100 | 902.9 |
| 20260905174220 | 56 | 271 | 9.6 | 23.5 | 0.00 | 0.00 | 0.00 | 100 | 905.2 |
| 20260905174116 | 56 | 269 | 8.7 | 23.5 | 0.00 | 0.00 | 0.00 | 100 | 908.6 |
| 20260905174010 | 56 | 270 | 8.7 | 23.5 | 0.00 | 0.00 | 0.00 | 100 | 904.0 |
| 20260905173813 | 56 | 275 | 8.7 | 18.2 | 0.00 | 0.00 | 0.00 | 100 | 905.3 |
| 20260905173802 | 56 | 275 | 8.7 | 18.2 | 0.00 | 0.00 | 0.00 | 100 | 908.0 |
| 20260905173553 | 56 | 271 | 7.8 | 18.2 | 0.00 | 0.00 | 0.00 | 100 | 903.1 |
| 20260905173344 | 56 | 273 | 7.0 | 15.6 | 0.00 | 0.00 | 0.00 | 100 | 903.2 |
| 20260905173147 | 56 | 272 | 7.8 | 17.4 | 0.00 | 0.00 | 0.00 | 100 | 908.7 |
| 20260905173043 | 56 | 273 | 8.7 | 25.2 | 0.00 | 0.00 | 0.00 | 100 | 903.6 |
| 20260905172937 | 56 | 274 | 8.7 | 25.2 | 0.00 | 0.00 | 0.00 | 100 | 903.9 |
| 20260905172739 | 56 | 280 | 8.7 | 18.2 | 0.00 | 0.00 | 0.00 | 100 | 908.1 |
| 20260905172728 | 56 | 280 | 8.7 | 18.2 | 0.00 | 0.00 | 0.00 | 100 | 903.2 |
| 20260905172520 | 56 | 272 | 10.4 | 20.9 | 0.00 | 0.00 | 0.00 | 100 | 903.1 |
| 20260905172311 | 56 | 272 | 9.6 | 20.9 | 0.00 | 0.00 | 0.00 | 100 | 903.4 |
| 20260905172103 | 56 | 282 | 7.0 | 17.4 | 0.00 | 0.00 | 0.00 | 100 | 907.7 |
| 20260905171959 | 56 | 279 | 7.8 | 17.4 | 0.00 | 0.00 | 0.00 | 100 | 903.8 |
| 20260905171853 | 56 | 277 | 7.8 | 14.8 | 0.00 | 0.00 | 0.00 | 100 | 904.7 |
| 20260905171645 | 56 | 270 | 8.7 | 20.0 | 0.00 | 0.00 | 0.00 | 100 | 903.4 |
| 20260905171459 | 56 | 275 | 8.7 | 20.0 | 0.00 | 0.00 | 0.00 | 100 | 903.2 |
| 20260905171447 | 56 | 275 | 8.7 | 20.0 | 0.00 | 0.00 | 0.00 | 100 | 903.0 |
| 20260905171238 | 56 | 275 | 8.7 | 19.1 | 0.00 | 0.00 | 0.00 | 100 | 903.0 |
| 20260905171030 | 56 | 280 | 8.7 | 20.0 | 0.00 | 0.00 | 0.00 | 100 | 905.6 |
| 20260905170926 | 56 | 283 | 8.7 | 20.0 | 0.00 | 0.00 | 0.00 | 100 | 908.8 |
| 20260905170820 | 56 | 282 | 9.6 | 22.6 | 0.00 | 0.00 | 0.00 | 100 | 903.6 |
| 20260905170611 | 56 | 279 | 9.6 | 22.6 | 0.00 | 0.00 | 0.00 | 100 | 906.2 |
| 20260905170403 | 57 | 277 | 8.7 | 19.1 | 0.00 | 0.00 | 0.00 | 100 | 903.2 |
| 20260905170154 | 56 | 280 | 11.3 | 19.1 | 0.00 | 0.00 | 0.00 | 100 | 903.0 |
| 20260905165957 | 57 | 277 | 11.3 | 21.7 | 0.00 | 0.00 | 0.00 | 100 | 904.1 |
| 20260905165946 | 57 | 277 | 11.3 | 21.7 | 0.00 | 0.00 | 0.00 | 100 | 906.5 |
| 20260905165842 | 57 | 277 | 10.4 | 21.7 | 0.00 | 0.00 | 0.00 | 100 | 906.5 |
| 20260905165746 | 57 | 272 | 9.6 | 21.7 | 0.00 | 0.00 | 0.00 | 100 | 906.2 |
| 20260905165538 | 57 | 276 | 8.7 | 22.6 | 0.00 | 0.00 | 0.00 | 100 | 904.0 |
| 20260905165330 | 56 | 277 | 8.7 | 22.6 | 0.00 | 0.00 | 0.00 | 100 | 907.4 |
| 20260905165121 | 57 | 272 | 8.7 | 24.3 | 0.00 | 0.00 | 0.00 | 100 | 903.2 |
| 20260905164924 | 57 | 271 | 10.4 | 24.3 | 0.00 | 0.00 | 0.00 | 100 | 903.3 |
| 20260905164912 | 57 | 271 | 10.4 | 24.3 | 0.00 | 0.00 | 0.00 | 100 | |
| 20260905164901 | 57 | 265 | 10.4 | 24.3 | 0.00 | 0.00 | 0.00 | 100 | |
| 20260905164815 | 57 | 265 | 9.6 | 24.3 | 0.00 | 0.00 | 0.00 | 100 | |
| 20260905164624 | 57 | 276 | 8.7 | 20.9 | 0.00 | 0.00 | 0.00 | 100 | |
| 20260905164525 | 57 | 280 | 8.7 | 19.1 | 0.00 | 0.00 | 0.00 | 100 | |
| 20260905164322 | 57 | 276 | 10.4 | 24.3 | 0.00 | 0.00 | 0.00 | 100 | 903.5 |
| 20260905164102 | 57 | 266 | 12.2 | 24.3 | 0.00 | 0.00 | 0.00 | 100 | 903.6 |
| 20260905163949 | 57 | 262 | 12.2 | 24.3 | 0.00 | 0.00 | 0.00 | 100 | 903.6 |
| 20260905163836 | 57 | 264 | 12.2 | 24.3 | 0.00 | 0.00 | 0.00 | 100 | 903.6 |
| 20260905163613 | 57 | 271 | 9.6 | 20.0 | 0.00 | 0.00 | 0.00 | 100 | 904.0 |
| 20260905163405 | 57 | 266 | 11.3 | 24.3 | 0.00 | 0.00 | 0.00 | 100 | 903.9 |
| 20260905163315 | 58 | 269 | 11.3 | 24.3 | 0.00 | 0.00 | 0.00 | 100 | 903.8 |
| 20260905163156 | 58 | 270 | 11.3 | 24.3 | 0.00 | 0.00 | 0.00 | 100 | 903.8 |
| 20260905163102 | 58 | 272 | 10.4 | 26.1 | 0.00 | 0.00 | 0.00 | 100 | 903.9 |
| 20260905162948 | 58 | 272 | 11.3 | 26.1 | 0.00 | 0.00 | 0.00 | 100 | 903.9 |
| 20260905162843 | 58 | 267 | 10.4 | 26.1 | 0.00 | 0.00 | 0.00 | 100 | 903.8 |
| 20260905162738 | 58 | 268 | 9.6 | 26.1 | 0.00 | 0.00 | 0.00 | 100 | 904.0 |
| 20260905162645 | 58 | 272 | 9.6 | 24.3 | 0.00 | 0.00 | 0.00 | 100 | 904.0 |
| 20260905162530 | 58 | 272 | 9.6 | 24.3 | 0.00 | 0.00 | 0.00 | 100 | 903.8 |
| 20260905162446 | 58 | 272 | 10.4 | 24.3 | 0.00 | 0.00 | 0.00 | 100 | 903.8 |
| 20260905162332 | 58 | 270 | 11.3 | 24.3 | 0.00 | 0.00 | 0.00 | 100 | 903.8 |
| 20260905162238 | 58 | 261 | 12.2 | 27.8 | 0.00 | 0.00 | 0.00 | 100 | 903.9 |
| 20260905162123 | 58 | 260 | 11.3 | 27.8 | 0.00 | 0.00 | 0.00 | 100 | 903.8 |
| 20260905162029 | 58 | 271 | 10.4 | 27.8 | 0.00 | 0.00 | 0.00 | 100 | 903.7 |
| 20260905161915 | 58 | 277 | 8.7 | 27.8 | 0.00 | 0.00 | 0.00 | 100 | 904.1 |
| 20260905161810 | 58 | 280 | 10.4 | 24.3 | 0.00 | 0.00 | 0.00 | 100 | 904.1 |
| 20260905161705 | 58 | 277 | 12.2 | 30.4 | 0.00 | 0.00 | 0.00 | 100 | 903.9 |
| 20260905161612 | 58 | 277 | 11.3 | 30.4 | 0.00 | 0.00 | 0.00 | 100 | 904.0 |
| 20260905161456 | 58 | 271 | 11.3 | 30.4 | 0.00 | 0.00 | 0.00 | 100 | 903.7 |
| 20260905161403 | 58 | 275 | 10.4 | 26.1 | 0.00 | 0.00 | 0.00 | 100 | 903.7 |
| 20260905161248 | 58 | 276 | 10.4 | 23.5 | 0.00 | 0.00 | 0.00 | 100 | 904.0 |
| 20260905161155 | 58 | 274 | 10.4 | 24.3 | 0.00 | 0.00 | 0.00 | 100 | 904.0 |
| 20260905161039 | 58 | 274 | 11.3 | 24.3 | 0.00 | 0.00 | 0.00 | 100 | 904.0 |
| 20260905160945 | 58 | 276 | 11.3 | 24.3 | 0.00 | 0.00 | 0.00 | 100 | 903.9 |
| 20260905160831 | 58 | 277 | 11.3 | 25.2 | 0.00 | 0.00 | 0.00 | 100 | 903.8 |
| 20260905160737 | 57 | 278 | 10.4 | 25.2 | 0.00 | 0.00 | 0.00 | 100 | 903.3 |
| 20260905160631 | 57 | 271 | 12.2 | 25.2 | 0.00 | 0.00 | 0.00 | 100 | 903.2 |
| 20260905160538 | 58 | 266 | 13.9 | 30.4 | 0.00 | 0.00 | 0.00 | 100 | 903.0 |
| 20260905160423 | 58 | 260 | 13.9 | 30.4 | 0.00 | 0.00 | 0.00 | 100 | 903.0 |
| 20260905160330 | 58 | 260 | 13.0 | 30.4 | 0.00 | 0.00 | 0.00 | 100 | 903.1 |
| 20260905160215 | 58 | 262 | 13.0 | 30.4 | 0.00 | 0.00 | 0.00 | 100 | 903.1 |
| 20260905160121 | 58 | 262 | 12.2 | 26.1 | 0.00 | 0.00 | 0.00 | 100 | 903.1 |
| 20260905160006 | 58 | 261 | 13.0 | 26.1 | 0.00 | 0.00 | 0.00 | 100 | 903.3 |
| 20260905155912 | 58 | 261 | 13.0 | 26.1 | 0.00 | 0.00 | 0.00 | 100 | 903.3 |
| 20260905155758 | 58 | 257 | 13.0 | 26.1 | 0.00 | 0.00 | 0.00 | 100 | 903.4 |
| 20260905155653 | 58 | 257 | 12.2 | 25.2 | 0.00 | 0.00 | 0.00 | 100 | 903.2 |
| 20260905155548 | 59 | 257 | 12.2 | 21.7 | 0.00 | 0.00 | 0.00 | 100 | 903.5 |
| 20260905155455 | 59 | 257 | 12.2 | 24.3 | 0.00 | 0.00 | 0.00 | 100 | 903.6 |
| 20260905155340 | 59 | 258 | 12.2 | 31.3 | 0.00 | 0.00 | 0.00 | 100 | 903.5 |
| 20260905155246 | 59 | 262 | 12.2 | 31.3 | 0.00 | 0.00 | 0.00 | 100 | 903.4 |
| 20260905155131 | 59 | 260 | 12.2 | 31.3 | 0.00 | 0.00 | 0.00 | 100 | 903.5 |
| 20260905155047 | 59 | 260 | 11.3 | 26.1 | 0.00 | 0.00 | 0.00 | 100 | 903.5 |
| 20260905154932 | 59 | 261 | 10.4 | 22.6 | 0.00 | 0.00 | 0.00 | 100 | 903.6 |
| 20260905154840 | 59 | 261 | 12.2 | 25.2 | 0.00 | 0.00 | 0.00 | 100 | 903.6 |
| 20260905154724 | 58 | 262 | 12.2 | 25.2 | 0.00 | 0.00 | 0.00 | 100 | 903.6 |
| 20260905154619 | 58 | 269 | 13.0 | 26.9 | 0.00 | 0.00 | 0.00 | 100 | 903.4 |
| 20260905154514 | 59 | 270 | 13.0 | 26.9 | 0.00 | 0.00 | 0.00 | 100 | 903.2 |
| 20260905154420 | 59 | 271 | 12.2 | 26.9 | 0.00 | 0.00 | 0.00 | 100 | 903.0 |
| 20260905154305 | 59 | 269 | 11.3 | 26.9 | 0.00 | 0.00 | 0.00 | 100 | 903.1 |
| 20260905154211 | 59 | 270 | 12.2 | 26.9 | 0.00 | 0.00 | 0.00 | 100 | 903.3 |
| 20260905154057 | 59 | 271 | 13.0 | 26.9 | 0.00 | 0.00 | 0.00 | 100 | 903.6 |
| 20260905154005 | 59 | 270 | 13.0 | 27.8 | 0.00 | 0.00 | 0.00 | 100 | 903.6 |
| 20260905153848 | 59 | 270 | 13.0 | 27.8 | 0.00 | 0.00 | 0.00 | 100 | 903.5 |
| 20260905153754 | 59 | 266 | 11.3 | 27.8 | 0.00 | 0.00 | 0.00 | 100 | 903.5 |
| 20260905153640 | 59 | 268 | 10.4 | 27.8 | 0.00 | 0.00 | 0.00 | 100 | 903.8 |
| 20260905153628 | 59 | 272 | 10.4 | 27.8 | 0.00 | 0.00 | 0.00 | 100 | 903.8 |
| 20260905153538 | 59 | 272 | 10.4 | 26.1 | 0.00 | 0.00 | 0.00 | 100 | |
| 20260905153404 | 59 | 273 | 11.3 | 26.1 | 0.00 | 0.00 | 0.00 | 100 | 903.9 |
| 20260905153300 | 59 | 274 | 10.4 | 26.1 | 0.00 | 0.00 | 0.00 | 100 | 903.9 |
| 20260905153155 | 59 | 279 | 10.4 | 26.1 | 0.00 | 0.00 | 0.00 | 100 | 904.0 |
| 20260905152948 | 59 | 279 | 10.4 | 23.5 | 0.00 | 0.00 | 0.00 | 100 | 904.0 |
| 20260905152741 | 58 | 271 | 11.3 | 26.9 | 0.00 | 0.00 | 0.00 | 100 | 903.9 |
| 20260905152533 | 58 | 265 | 12.2 | 26.9 | 0.00 | 0.00 | 0.00 | 100 | 902.9 |
| 20260905152326 | 58 | 272 | 11.3 | 28.7 | 0.00 | 0.00 | 0.00 | 100 | 902.9 |
| 20260905152222 | 58 | 272 | 11.3 | 28.7 | 0.00 | 0.00 | 0.00 | 100 | |
| 20260905152047 | 58 | 269 | 12.2 | 28.7 | 0.00 | 0.00 | 0.00 | 100 | 902.6 |
| 20260905151943 | 59 | 267 | 11.3 | 23.5 | 0.00 | 0.00 | 0.00 | 100 | 902.6 |
| 20260905151838 | 59 | 264 | 11.3 | 23.5 | 0.00 | 0.00 | 0.00 | 100 | 902.6 |
| 20260905151631 | 59 | 269 | 10.4 | 23.5 | 0.00 | 0.00 | 0.00 | 100 | 903.5 |
| 20260905151424 | 59 | 269 | 9.6 | 23.5 | 0.00 | 0.00 | 0.00 | 100 | 903.8 |
| 20260905151216 | 59 | 267 | 11.3 | 23.5 | 0.00 | 0.00 | 0.00 | 100 | 903.5 |
| 20260905151009 | 59 | 268 | 11.3 | 25.2 | 0.00 | 0.00 | 0.00 | 100 | 902.9 |
| 20260905150902 | 59 | 268 | 11.3 | 25.2 | 0.00 | 0.00 | 0.00 | 100 | |
| 20260905150736 | 59 | 268 | 10.4 | 25.2 | 0.00 | 0.00 | 0.00 | 100 | 903.9 |
| 20260905150633 | 59 | 266 | 10.4 | 21.7 | 0.00 | 0.00 | 0.00 | 100 | 903.7 |
| 20260905150528 | 59 | 270 | 10.4 | 21.7 | 0.00 | 0.00 | 0.00 | 100 | 903.7 |
| 20260905150321 | 58 | 277 | 10.4 | 22.6 | 0.00 | 0.00 | 0.00 | 100 | 903.1 |
| 20260905150114 | 58 | 277 | 9.6 | 22.6 | 0.00 | 0.00 | 0.00 | 100 | 903.0 |
| 20260905145906 | 59 | 260 | 11.3 | 25.2 | 0.00 | 0.00 | 0.00 | 100 | 902.8 |
| 20260905145659 | 59 | 260 | 10.4 | 25.2 | 0.00 | 0.00 | 0.00 | 100 | |
| 20260905145555 | 59 | 263 | 10.4 | 22.6 | 0.00 | 0.00 | 0.00 | 100 | |
| 20260905145431 | 59 | 270 | 10.4 | 28.7 | 0.00 | 0.00 | 0.00 | 100 | |
| 20260905145329 | 59 | 272 | 10.4 | 28.7 | 0.00 | 0.00 | 0.00 | 100 | |
| 20260905145107 | 59 | 274 | 10.4 | 24.3 | 0.00 | 0.00 | 0.00 | 100 | |
| 20260905144838 | 58 | 267 | 10.4 | 22.6 | 0.00 | 0.00 | 0.00 | 100 | 903.6 |
| 20260905144614 | 58 | 268 | 10.4 | 22.6 | 0.00 | 0.00 | 0.00 | 100 | 902.8 |
| 20260905144511 | 58 | 268 | 9.6 | 22.6 | 0.00 | 0.00 | 0.00 | 100 | 902.7 |
| 20260905144404 | 59 | 263 | 9.6 | 22.6 | 0.00 | 0.00 | 0.00 | 100 | 902.8 |
| 20260905144156 | 59 | 262 | 10.4 | 20.0 | 0.00 | 0.00 | 0.00 | 100 | 903.3 |
| 20260905143947 | 59 | 256 | 11.3 | 23.5 | 0.00 | 0.00 | 0.00 | 100 | 903.4 |
| 20260905143738 | 59 | 254 | 12.2 | 23.5 | 0.00 | 0.00 | 0.00 | 100 | 903.5 |
| 20260905143530 | 59 | 251 | 13.0 | 23.5 | 0.00 | 0.00 | 0.00 | 100 | 903.1 |
| 20260905143427 | 59 | 251 | 13.0 | 25.2 | 0.00 | 0.00 | 0.00 | 100 | 903.7 |
| 20260905143320 | 59 | 251 | 14.8 | 25.2 | 0.00 | 0.00 | 0.00 | 100 | 903.6 |
| 20260905143112 | 59 | 250 | 12.2 | 26.1 | 0.00 | 0.00 | 0.00 | 100 | 904.0 |
| 20260905142925 | 59 | 258 | 9.6 | 26.1 | 0.00 | 0.00 | 0.00 | 100 | 904.1 |
| 20260905142914 | 59 | 258 | 9.6 | 26.1 | 0.00 | 0.00 | 0.00 | 100 | 904.0 |
| 20260905142705 | 58 | 274 | 8.7 | 20.0 | 0.00 | 0.00 | 0.00 | 100 | 903.9 |
| 20260905142457 | 57 | 280 | 10.4 | 25.2 | 0.00 | 0.00 | 0.00 | 100 | 903.3 |
| 20260905142354 | 57 | 276 | 10.4 | 25.2 | 0.00 | 0.00 | 0.00 | 100 | 903.2 |
| 20260905142247 | 57 | 277 | 10.4 | 25.2 | 0.00 | 0.00 | 0.00 | 100 | 903.1 |
| 20260905142039 | 57 | 275 | 10.4 | 20.9 | 0.00 | 0.00 | 0.00 | 100 | 903.0 |
| 20260905141830 | 57 | 284 | 12.2 | 28.7 | 0.00 | 0.00 | 0.00 | 100 | 902.8 |
| 20260905141621 | 58 | 284 | 10.4 | 28.7 | 0.00 | 0.00 | 0.00 | 100 | 902.7 |
| 20260905141424 | 58 | 273 | 10.4 | 20.9 | 0.00 | 0.00 | 0.00 | 100 | 902.9 |
| 20260905141413 | 58 | 273 | 10.4 | 20.9 | 0.00 | 0.00 | 0.00 | 100 | 902.8 |
| 20260905141310 | 58 | 260 | 11.3 | 20.9 | 0.00 | 0.00 | 0.00 | 100 | 902.8 |
| 20260905141214 | 58 | 259 | 11.3 | 20.9 | 0.00 | 0.00 | 0.00 | 100 | 902.9 |
| 20260905141006 | 58 | 260 | 10.4 | 20.9 | 0.00 | 0.00 | 0.00 | 100 | 903.6 |
| 20260905140757 | 59 | 264 | 10.4 | 20.9 | 0.00 | 0.00 | 0.00 | 100 | 904.0 |
| 20260905140548 | 58 | 266 | 10.4 | 20.9 | 0.00 | 0.00 | 0.00 | 100 | 904.4 |
| 20260905140412 | 58 | 270 | 9.6 | 21.7 | 0.00 | 0.00 | 0.00 | 100 | 904.3 |
| 20260905140344 | 58 | 270 | 9.6 | 21.7 | 0.00 | 0.00 | 0.00 | 100 | |
| 20260905140237 | 58 | 268 | 10.4 | 21.7 | 0.00 | 0.00 | 0.00 | 100 | |
| 20260905140022 | 57 | 264 | 9.6 | 20.9 | 0.00 | 0.00 | 0.00 | 100 | |
| 20260905135915 | 57 | 260 | 9.6 | 17.4 | 0.00 | 0.00 | 0.00 | 100 | |
| 20260905135748 | 57 | 260 | 10.4 | 17.4 | 0.00 | 0.00 | 0.00 | 100 | 903.6 |
| 20260905135522 | 57 | 266 | 10.4 | 20.0 | 0.00 | 0.00 | 0.00 | 100 | 903.3 |
| 20260905135356 | 57 | 268 | 9.6 | 19.1 | 0.00 | 0.00 | 0.00 | 100 | 903.0 |
| 20260905135316 | 57 | 268 | 9.6 | 19.1 | 0.00 | 0.00 | 0.00 | 100 | 903.0 |
| 20260905135206 | 57 | 264 | 10.4 | 20.9 | 0.00 | 0.00 | 0.00 | 100 | 902.9 |
| 20260905135100 | 57 | 265 | 11.3 | 23.5 | 0.00 | 0.00 | 0.00 | 100 | 903.1 |
| 20260905134852 | 57 | 265 | 11.3 | 23.5 | 0.00 | 0.00 | 0.00 | 100 | 903.4 |
| 20260905134643 | 57 | 256 | 11.3 | 20.9 | 0.00 | 0.00 | 0.00 | 100 | 903.3 |
| 20260905134445 | 58 | 257 | 9.6 | 20.0 | 0.00 | 0.00 | 0.00 | 100 | 903.2 |
| 20260905134434 | 58 | 257 | 9.6 | 20.0 | 0.00 | 0.00 | 0.00 | 100 | 904.1 |
| 20260905134226 | 57 | 259 | 9.6 | 20.0 | 0.00 | 0.00 | 0.00 | 100 | 904.2 |
| 20260905134123 | 57 | 259 | 10.4 | 20.0 | 0.00 | 0.00 | 0.00 | 100 | 903.9 |
| 20260905134027 | 57 | 257 | 11.3 | 20.9 | 0.00 | 0.00 | 0.00 | 100 | 902.8 |
| 20260905133819 | 57 | 257 | 10.4 | 20.9 | 0.00 | 0.00 | 0.00 | 100 | 902.9 |
| 20260905133610 | 57 | 268 | 9.6 | 20.9 | 0.00 | 0.00 | 0.00 | 100 | 903.9 |
| 20260905133442 | 57 | 268 | 10.4 | 20.0 | 0.00 | 0.00 | 0.00 | 100 | 903.8 |
| 20260905133355 | 57 | 265 | 11.3 | 20.0 | 0.00 | 0.00 | 0.00 | 100 | 904.0 |
| 20260905133151 | 57 | 259 | 10.4 | 20.0 | 0.00 | 0.00 | 0.00 | 100 | 904.0 |
| 20260905133048 | 57 | 261 | 9.6 | 20.0 | 0.00 | 0.00 | 0.00 | 100 | 904.0 |
| 20260905132941 | 57 | 260 | 8.7 | 20.9 | 0.00 | 0.00 | 0.00 | 100 | 903.9 |
| 20260905132733 | 57 | 258 | 10.4 | 18.2 | 0.00 | 0.00 | 0.00 | 100 | 903.3 |
| 20260905132524 | 57 | 256 | 11.3 | 18.2 | 0.00 | 0.00 | 0.00 | 100 | 903.1 |
| 20260905132316 | 57 | 257 | 11.3 | 18.2 | 0.00 | 0.00 | 0.00 | 100 | 903.0 |
| 20260905132119 | 56 | 255 | 11.3 | 23.5 | 0.00 | 0.00 | 0.00 | 100 | 902.8 |
| 20260905132107 | 56 | 255 | 11.3 | 23.5 | 0.00 | 0.00 | 0.00 | 100 | |
| 20260905132055 | 56 | 253 | 11.3 | 23.5 | 0.00 | 0.00 | 0.00 | 100 | |
| 20260905132008 | 56 | 253 | 11.3 | 23.5 | 0.00 | 0.00 | 0.00 | 100 | |
| 20260905131822 | 56 | 253 | 11.3 | 19.1 | 0.00 | 0.00 | 0.00 | 100 | 903.4 |
| 20260905131608 | 56 | 256 | 12.2 | 19.1 | 0.00 | 0.00 | 0.00 | 100 | 907.9 |
| 20260905131520 | 56 | 257 | 13.0 | 20.9 | 0.00 | 0.00 | 0.00 | 100 | 902.7 |
| 20260905131400 | 57 | 253 | 12.2 | 20.9 | 0.00 | 0.00 | 0.00 | 100 | 902.6 |
| 20260905131306 | 57 | 249 | 13.0 | 22.6 | 0.00 | 0.00 | 0.00 | 100 | 902.7 |
| 20260905131201 | 57 | 248 | 13.9 | 23.5 | 0.00 | 0.00 | 0.00 | 100 | 903.1 |
| 20260905131107 | 57 | 246 | 15.6 | 23.5 | 0.00 | 0.00 | 0.00 | 100 | 903.3 |
| 20260905130952 | 57 | 246 | 15.6 | 23.5 | 0.00 | 0.00 | 0.00 | 100 | 903.4 |
| 20260905130859 | 57 | 248 | 13.9 | 23.5 | 0.00 | 0.00 | 0.00 | 100 | 903.7 |
| 20260905130846 | 57 | 249 | 13.9 | 23.5 | 0.00 | 0.00 | 0.00 | 100 | 903.7 |
| 20260905130736 | 57 | 249 | 13.9 | 20.9 | 0.00 | 0.00 | 0.00 | 100 | 903.9 |
| 20260905130522 | 57 | 252 | 13.9 | 20.9 | 0.00 | 0.00 | 0.00 | 100 | 903.8 |
| 20260905130439 | 57 | 252 | 13.9 | 20.9 | 0.00 | 0.00 | 0.00 | 100 | 903.8 |
| 20260905130324 | 56 | 253 | 13.0 | 20.0 | 0.00 | 0.00 | 0.00 | 100 | 903.4 |
| 20260905130220 | 56 | 254 | 12.2 | 20.0 | 0.00 | 0.00 | 0.00 | 100 | 903.0 |
| 20260905130115 | 57 | 251 | 13.0 | 18.2 | 0.00 | 0.00 | 0.00 | 100 | 902.5 |
| 20260905130022 | 57 | 252 | 12.2 | 22.6 | 0.00 | 0.00 | 0.00 | 100 | 902.6 |
| 20260905125906 | 57 | 253 | 11.3 | 22.6 | 0.00 | 0.00 | 0.00 | 100 | 902.7 |
| 20260905125813 | 57 | 253 | 10.4 | 22.6 | 0.00 | 0.00 | 0.00 | 100 | 903.2 |
| 20260905125657 | 57 | 258 | 10.4 | 22.6 | 0.00 | 0.00 | 0.00 | 100 | 903.7 |
| 20260905125603 | 57 | 256 | 10.4 | 22.6 | 0.00 | 0.00 | 0.00 | 100 | 903.9 |
| 20260905125448 | 58 | 256 | 11.3 | 18.2 | 0.00 | 0.00 | 0.00 | 100 | 904.0 |
| 20260905125355 | 58 | 255 | 11.3 | 18.2 | 0.00 | 0.00 | 0.00 | 100 | 903.8 |
| 20260905125240 | 58 | 255 | 10.4 | 18.2 | 0.00 | 0.00 | 0.00 | 100 | 904.3 |
| 20260905125147 | 58 | 253 | 10.4 | 18.2 | 0.00 | 0.00 | 0.00 | 100 | 904.3 |
| 20260905125135 | 57 | 253 | 10.4 | 18.2 | 0.00 | 0.00 | 0.00 | 100 | 904.3 |
| 20260905125030 | 57 | 254 | 9.6 | 19.1 | 0.00 | 0.00 | 0.00 | 100 | 904.3 |
| 20260905124936 | 56 | 256 | 9.6 | 20.9 | 0.00 | 0.00 | 0.00 | 100 | 904.2 |
| 20260905124822 | 56 | 260 | 8.7 | 20.9 | 0.00 | 0.00 | 0.00 | 100 | 903.1 |
| 20260905124739 | 57 | 262 | 8.7 | 20.9 | 0.00 | 0.00 | 0.00 | 100 | 903.2 |
| 20260905124624 | 57 | 265 | 8.7 | 20.9 | 0.00 | 0.00 | 0.00 | 100 | 903.2 |
| 20260905124530 | 57 | 265 | 9.6 | 20.9 | 0.00 | 0.00 | 0.00 | 100 | 903.6 |
| 20260905124415 | 56 | 268 | 9.6 | 20.9 | 0.00 | 0.00 | 0.00 | 100 | 903.9 |
| 20260905124323 | 56 | 267 | 9.6 | 20.9 | 0.00 | 0.00 | 0.00 | 100 | 903.4 |
| 20260905124207 | 57 | 270 | 7.8 | 18.2 | 0.00 | 0.00 | 0.00 | 100 | 903.2 |
| 20260905124113 | 57 | 268 | 7.0 | 15.6 | 0.00 | 0.00 | 0.00 | 100 | 903.2 |
| 20260905124102 | 57 | 268 | 7.0 | 15.6 | 0.00 | 0.00 | 0.00 | 100 | 904.0 |
| 20260905123957 | 56 | 262 | 7.8 | 14.8 | 0.00 | 0.00 | 0.00 | 100 | 904.0 |
| 20260905123903 | 56 | 261 | 7.0 | 14.8 | 0.00 | 0.00 | 0.00 | 100 | 904.0 |
| 20260905123749 | 56 | 257 | 7.0 | 14.8 | 0.00 | 0.00 | 0.00 | 100 | 903.5 |
| 20260905123656 | 57 | 257 | 7.8 | 15.6 | 0.00 | 0.00 | 0.00 | 100 | 903.5 |
| 20260905123540 | 57 | 257 | 8.7 | 15.6 | 0.00 | 0.00 | 0.00 | 100 | 903.5 |
| 20260905123446 | 56 | 253 | 9.6 | 17.4 | 0.00 | 0.00 | 0.00 | 100 | 903.4 |
| 20260905123331 | 56 | 254 | 9.6 | 17.4 | 0.00 | 0.00 | 0.00 | 100 | 903.7 |
| 20260905123258 | 56 | 250 | 10.4 | 18.2 | 0.00 | 0.00 | 0.00 | 100 | 902.9 |
| 20260905123123 | 57 | 251 | 10.4 | 18.2 | 0.00 | 0.00 | 0.00 | 100 | 903.1 |
| 20260905123029 | 57 | 251 | 10.4 | 18.2 | 0.00 | 0.00 | 0.00 | 100 | 903.5 |
| 20260905122924 | 57 | 250 | 11.3 | 20.0 | 0.00 | 0.00 | 0.00 | 100 | 903.2 |
| 20260905122830 | 57 | 252 | 11.3 | 20.0 | 0.00 | 0.00 | 0.00 | 100 | 903.2 |
| 20260905122715 | 56 | 253 | 12.2 | 20.0 | 0.00 | 0.00 | 0.00 | 100 | 903.2 |
| 20260905122622 | 56 | 253 | 13.0 | 20.9 | 0.00 | 0.00 | 0.00 | 100 | 903.2 |
| 20260905122507 | 57 | 254 | 12.2 | 20.9 | 0.00 | 0.00 | 0.00 | 100 | 903.0 |
| 20260905122412 | 57 | 255 | 12.2 | 22.6 | 0.00 | 0.00 | 0.00 | 100 | 903.6 |
| 20260905122258 | 57 | 256 | 12.2 | 22.6 | 0.00 | 0.00 | 0.00 | 100 | 904.2 |
| 20260905122205 | 57 | 257 | 12.2 | 22.6 | 0.00 | 0.00 | 0.00 | 100 | 904.2 |
| 20260905122049 | 57 | 254 | 12.2 | 22.6 | 0.00 | 0.00 | 0.00 | 100 | 903.8 |
| 20260905121945 | 56 | 253 | 12.2 | 19.1 | 0.00 | 0.00 | 0.00 | 100 | 903.8 |
| 20260905121840 | 56 | 251 | 11.3 | 18.2 | 0.00 | 0.00 | 0.00 | 100 | 904.0 |
| 20260905121746 | 56 | 253 | 11.3 | 18.2 | 0.00 | 0.00 | 0.00 | 100 | 903.7 |
| 20260905121632 | 56 | 253 | 11.3 | 18.2 | 0.00 | 0.00 | 0.00 | 100 | 903.6 |
| 20260905121538 | 56 | 255 | 11.3 | 17.4 | 0.00 | 0.00 | 0.00 | 100 | 903.5 |
| 20260905121423 | 56 | 257 | 10.4 | 17.4 | 0.00 | 0.00 | 0.00 | 100 | 903.6 |
| 20260905121342 | 56 | 259 | 10.4 | 17.4 | 0.00 | 0.00 | 0.00 | 100 | 903.6 |
| 20260905121224 | 56 | 259 | 8.7 | 17.4 | 0.00 | 0.00 | 0.00 | 100 | 903.7 |
| 20260905121131 | 56 | 261 | 7.8 | 17.4 | 0.00 | 0.00 | 0.00 | 100 | 902.9 |
| 20260905121104 | 56 | 284 | 7.8 | 17.4 | 0.00 | 0.00 | 0.00 | 100 | 903.4 |
| 20260905121016 | 57 | 271 | 7.8 | 17.4 | 0.00 | 0.00 | 0.00 | 100 | 903.1 |
| 20260905120912 | 56 | 284 | 7.8 | 17.4 | 0.00 | 0.00 | 0.00 | 100 | 903.4 |
| 20260905120807 | 56 | 286 | 7.8 | 20.0 | 0.00 | 0.00 | 0.00 | 100 | 903.5 |
| 20260905120713 | 56 | 283 | 7.8 | 20.0 | 0.00 | 0.00 | 0.00 | 100 | 904.0 |
| 20260905120558 | 56 | 277 | 7.8 | 20.0 | 0.00 | 0.00 | 0.00 | 100 | 903.7 |
| 20260905120505 | 56 | 283 | 8.7 | 20.0 | 0.00 | 0.00 | 0.00 | 100 | 903.2 |
| 20260905120350 | 56 | 281 | 8.7 | 18.2 | 0.00 | 0.00 | 0.00 | 100 | 903.2 |
| 20260905120256 | 56 | 284 | 8.7 | 18.2 | 0.00 | 0.00 | 0.00 | 100 | 903.2 |
| 20260905120140 | 56 | 281 | 8.7 | 18.2 | 0.00 | 0.00 | 0.00 | 100 | 902.7 |
| 20260905120048 | 56 | 273 | 7.8 | 18.2 | 0.00 | 0.00 | 0.00 | 100 | 902.7 |
| 20260905115932 | 57 | 272 | 8.7 | 18.2 | 0.00 | 0.00 | 0.00 | 100 | 903.2 |
| 20260905115827 | 56 | 263 | 9.6 | 19.1 | 0.00 | 0.00 | 0.00 | 100 | 903.6 |
| 20260905115722 | 56 | 263 | 10.4 | 19.1 | 0.00 | 0.00 | 0.00 | 100 | 903.6 |
| 20260905115639 | 56 | 260 | 10.4 | 19.1 | 0.00 | 0.00 | 0.00 | 100 | 902.8 |
| 20260905115616 | 56 | 260 | 11.3 | 19.1 | 0.00 | 0.00 | 0.00 | 100 | 902.8 |
| 20260905115517 | 57 | 261 | 10.4 | 20.9 | 0.00 | 0.00 | 0.00 | 100 | 903.6 |
| 20260905115306 | 57 | 258 | 8.7 | 20.9 | 0.00 | 0.00 | 0.00 | 100 | 904.2 |
| 20260905115219 | 57 | 255 | 8.7 | 20.9 | 0.00 | 0.00 | 0.00 | 100 | 904.2 |
| 20260905115054 | 57 | 255 | 8.7 | 20.9 | 0.00 | 0.00 | 0.00 | 100 | 904.1 |
| 20260905115010 | 56 | 257 | 8.7 | 20.9 | 0.00 | 0.00 | 0.00 | 100 | 904.0 |
| 20260905114846 | 56 | 258 | 9.6 | 21.7 | 0.00 | 0.00 | 0.00 | 100 | 903.6 |
| 20260905114753 | 56 | 263 | 8.7 | 21.7 | 0.00 | 0.00 | 0.00 | 100 | 903.6 |
| 20260905114647 | 56 | 263 | 9.6 | 21.7 | 0.00 | 0.00 | 0.00 | 100 | 903.2 |
| 20260905114553 | 56 | 260 | 10.4 | 21.7 | 0.00 | 0.00 | 0.00 | 100 | 903.0 |
| 20260905114439 | 56 | 257 | 10.4 | 22.6 | 0.00 | 0.00 | 0.00 | 100 | 902.6 |
| 20260905114349 | 56 | 257 | 12.2 | 22.6 | 0.00 | 0.00 | 0.00 | 100 | 902.8 |
| 20260905114230 | 57 | 256 | 12.2 | 22.6 | 0.00 | 0.00 | 0.00 | 100 | 903.4 |
| 20260905114136 | 57 | 255 | 12.2 | 22.6 | 0.00 | 0.00 | 0.00 | 100 | 903.4 |
| 20260905114021 | 57 | 255 | 12.2 | 22.6 | 0.00 | 0.00 | 0.00 | 100 | 903.7 |
| 20260905113929 | 56 | 256 | 12.2 | 20.9 | 0.00 | 0.00 | 0.00 | 100 | 903.3 |
| 20260905113813 | 56 | 256 | 11.3 | 19.1 | 0.00 | 0.00 | 0.00 | 100 | 903.4 |
| 20260905113719 | 56 | 258 | 11.3 | 19.1 | 0.00 | 0.00 | 0.00 | 100 | 903.4 |
| 20260905113708 | 57 | 258 | 11.3 | 19.1 | 0.00 | 0.00 | 0.00 | 100 | 903.4 |
| 20260905113603 | 57 | 257 | 11.3 | 18.2 | 0.00 | 0.00 | 0.00 | 100 | 903.3 |
| 20260905113511 | 57 | 258 | 11.3 | 18.2 | 0.00 | 0.00 | 0.00 | 100 | 903.3 |
| 20260905113355 | 57 | 259 | 10.4 | 18.2 | 0.00 | 0.00 | 0.00 | 100 | 903.3 |
| 20260905113302 | 57 | 260 | 9.6 | 18.2 | 0.00 | 0.00 | 0.00 | 100 | 903.7 |
| 20260905113146 | 57 | 262 | 8.7 | 17.4 | 0.00 | 0.00 | 0.00 | 100 | 903.9 |
| 20260905113104 | 57 | 263 | 7.8 | 16.5 | 0.00 | 0.00 | 0.00 | 100 | 903.8 |
| 20260905112948 | 57 | 266 | 7.8 | 17.4 | 0.00 | 0.00 | 0.00 | 100 | 903.8 |
| 20260905112854 | 56 | 266 | 8.7 | 19.1 | 0.00 | 0.00 | 0.00 | 100 | 903.9 |
| 20260905112740 | 56 | 264 | 8.7 | 20.9 | 0.00 | 0.00 | 0.00 | 100 | 903.6 |
| 20260905112635 | 56 | 262 | 9.6 | 20.9 | 0.00 | 0.00 | 0.00 | 100 | 903.6 |
| 20260905112530 | 57 | 262 | 9.6 | 20.9 | 0.00 | 0.00 | 0.00 | 100 | 904.0 |
| 20260905112436 | 57 | 261 | 8.7 | 17.4 | 0.00 | 0.00 | 0.00 | 100 | 904.0 |
| 20260905112322 | 57 | 262 | 8.7 | 17.4 | 0.00 | 0.00 | 0.00 | 100 | 904.0 |
| 20260905112228 | 56 | 259 | 9.6 | 16.5 | 0.00 | 0.00 | 0.00 | 100 | 903.8 |
| 20260905112113 | 56 | 259 | 10.4 | 18.2 | 0.00 | 0.00 | 0.00 | 100 | 904.1 |
| 20260905112019 | 56 | 259 | 10.4 | 18.2 | 0.00 | 0.00 | 0.00 | 100 | 903.8 |
| 20260905111904 | 55 | 259 | 10.4 | 19.1 | 0.00 | 0.00 | 0.00 | 100 | 903.7 |
| 20260905111812 | 55 | 260 | 10.4 | 19.1 | 0.00 | 0.00 | 0.00 | 100 | 903.5 |
| 20260905111656 | 55 | 260 | 10.4 | 19.1 | 0.00 | 0.00 | 0.00 | 100 | 903.8 |
| 20260905111551 | 55 | 259 | 11.3 | 19.1 | 0.00 | 0.00 | 0.00 | 100 | 903.5 |
| 20260905111446 | 54 | 258 | 10.4 | 17.4 | 0.00 | 0.00 | 0.00 | 100 | 903.3 |
| 20260905111403 | 54 | 257 | 10.4 | 17.4 | 0.00 | 0.00 | 0.00 | 100 | 902.5 |
| 20260905111248 | 54 | 258 | 9.6 | 17.4 | 0.00 | 0.00 | 0.00 | 100 | 902.3 |
| 20260905111156 | 54 | 263 | 8.7 | 17.4 | 0.00 | 0.00 | 0.00 | 100 | 902.3 |
| 20260905111040 | 55 | 265 | 9.6 | 17.4 | 0.00 | 0.00 | 0.00 | 100 | 902.2 |
| 20260905110946 | 55 | 268 | 9.6 | 17.4 | 0.00 | 0.00 | 0.00 | 100 | 902.8 |
| 20260905110831 | 55 | 264 | 9.6 | 17.4 | 0.00 | 0.00 | 0.00 | 100 | 902.8 |
| 20260905110737 | 55 | 267 | 8.7 | 19.1 | 0.00 | 0.00 | 0.00 | 100 | 902.7 |
| 20260905110622 | 54 | 269 | 8.7 | 19.1 | 0.00 | 0.00 | 0.00 | 100 | 902.5 |
| 20260905110517 | 54 | 274 | 8.7 | 20.9 | 0.00 | 0.00 | 0.00 | 100 | 903.9 |
| 20260905110412 | 54 | 272 | 7.8 | 20.9 | 0.00 | 0.00 | 0.00 | 100 | 905.8 |
| 20260905110318 | 54 | 275 | 8.7 | 20.9 | 0.00 | 0.00 | 0.00 | 100 | 905.9 |
| 20260905110204 | 54 | 274 | 7.8 | 20.9 | 0.00 | 0.00 | 0.00 | 100 | 905.2 |
| 20260905110110 | 55 | 277 | 7.8 | 20.9 | 0.00 | 0.00 | 0.00 | 100 | 907.7 |
| 20260905105955 | 55 | 276 | 8.7 | 20.9 | 0.00 | 0.00 | 0.00 | 100 | 903.2 |
| 20260905105901 | 55 | 281 | 10.4 | 19.1 | 0.00 | 0.00 | 0.00 | 100 | 903.2 |
| 20260905105746 | 55 | 280 | 10.4 | 19.1 | 0.00 | 0.00 | 0.00 | 100 | 902.6 |
| 20260905105703 | 55 | 277 | 9.6 | 19.1 | 0.00 | 0.00 | 0.00 | 100 | 902.6 |
| 20260905105549 | 55 | 275 | 10.4 | 20.0 | 0.00 | 0.00 | 0.00 | 100 | 902.8 |
| 20260905105444 | 55 | 264 | 10.4 | 20.9 | 0.00 | 0.00 | 0.00 | 100 | 903.5 |
| 20260905105339 | 55 | 261 | 10.4 | 20.9 | 0.00 | 0.00 | 0.00 | 100 | 903.2 |
| 20260905105246 | 55 | 260 | 11.3 | 20.9 | 0.00 | 0.00 | 0.00 | 100 | 903.2 |
| 20260905105131 | 55 | 261 | 10.4 | 20.9 | 0.00 | 0.00 | 0.00 | 100 | 903.0 |
| 20260905105037 | 55 | 265 | 9.6 | 20.9 | 0.00 | 0.00 | 0.00 | 100 | 903.0 |
| 20260905104922 | 55 | 270 | 9.6 | 20.9 | 0.00 | 0.00 | 0.00 | 100 | 902.9 |
| 20260905104827 | 56 | 270 | 9.6 | 18.2 | 0.00 | 0.00 | 0.00 | 100 | 903.3 |
| 20260905104708 | 56 | 267 | 10.4 | 19.1 | 0.00 | 0.00 | 0.00 | 100 | 903.2 |
| 20260905104615 | 56 | 263 | 10.4 | 19.1 | 0.00 | 0.00 | 0.00 | 100 | 903.2 |
| 20260905104500 | 56 | 260 | 11.3 | 21.7 | 0.00 | 0.00 | 0.00 | 100 | 903.2 |
| 20260905104406 | 56 | 270 | 9.6 | 21.7 | 0.00 | 0.00 | 0.00 | 100 | 903.2 |
| 20260905104301 | 56 | 275 | 10.4 | 21.7 | 0.00 | 0.00 | 0.00 | 100 | 903.1 |
| 20260905104207 | 56 | 280 | 9.6 | 21.7 | 0.00 | 0.00 | 0.00 | 100 | 903.4 |
| 20260905104053 | 56 | 283 | 9.6 | 19.1 | 0.00 | 0.00 | 0.00 | 100 | 903.4 |
| 20260905103959 | 56 | 280 | 8.7 | 19.1 | 0.00 | 0.00 | 0.00 | 100 | 903.1 |
| 20260905103844 | 56 | 267 | 8.7 | 17.4 | 0.00 | 0.00 | 0.00 | 100 | 903.5 |
| 20260905103752 | 56 | 270 | 8.7 | 17.4 | 0.00 | 0.00 | 0.00 | 100 | 903.6 |
| 20260905103635 | 56 | 268 | 8.7 | 26.1 | 0.00 | 0.00 | 0.00 | 100 | 903.5 |
| 20260905103545 | 56 | 269 | 8.7 | 26.1 | 0.00 | 0.00 | 0.00 | 100 | 903.3 |
| 20260905103427 | 55 | 276 | 8.7 | 26.1 | 0.00 | 0.00 | 0.00 | 100 | 903.0 |
| 20260905103337 | 55 | 280 | 8.7 | 26.1 | 0.00 | 0.00 | 0.00 | 100 | 903.0 |
| 20260905103322 | 55 | 280 | 8.7 | 26.1 | 0.00 | 0.00 | 0.00 | 100 | 903.5 |
| 20260905103217 | 55 | 281 | 8.7 | 20.0 | 0.00 | 0.00 | 0.00 | 100 | 903.5 |
| 20260905103123 | 54 | 284 | 11.3 | 23.5 | 0.00 | 0.00 | 0.00 | 100 | 903.2 |
| 20260905103009 | 54 | 284 | 12.2 | 23.5 | 0.00 | 0.00 | 0.00 | 100 | 903.2 |
| 20260905102915 | 54 | 287 | 12.2 | 23.5 | 0.00 | 0.00 | 0.00 | 100 | 904.3 |
| 20260905102800 | 54 | 283 | 12.2 | 23.5 | 0.00 | 0.00 | 0.00 | 100 | 906.6 |
| 20260905102717 | 54 | 277 | 10.4 | 23.5 | 0.00 | 0.00 | 0.00 | 100 | 901.4 |
| 20260905102602 | 54 | 270 | 10.4 | 20.0 | 0.00 | 0.00 | 0.00 | 100 | 901.3 |
| 20260905102508 | 55 | 260 | 10.4 | 20.0 | 0.00 | 0.00 | 0.00 | 100 | 901.4 |
| 20260905102353 | 55 | 259 | 10.4 | 19.1 | 0.00 | 0.00 | 0.00 | 100 | 901.7 |
| 20260905102300 | 55 | 261 | 11.3 | 21.7 | 0.00 | 0.00 | 0.00 | 100 | 901.7 |
| 20260905102249 | 54 | 261 | 11.3 | 21.7 | 0.00 | 0.00 | 0.00 | 100 | 902.8 |
| 20260905102144 | 53 | 259 | 12.2 | 21.7 | 0.00 | 0.00 | 0.00 | 100 | 904.5 |
| 20260905102051 | 53 | 260 | 13.0 | 23.5 | 0.00 | 0.00 | 0.00 | 100 | 904.5 |
| 20260905101935 | 53 | 257 | 13.0 | 23.5 | 0.00 | 0.00 | 0.00 | 100 | 907.8 |
| 20260905101842 | 53 | 257 | 11.3 | 23.5 | 0.00 | 0.00 | 0.00 | 100 | 901.2 |
| 20260905101727 | 54 | 260 | 10.4 | 23.5 | 0.00 | 0.00 | 0.00 | 100 | 901.8 |
| 20260905101633 | 54 | 262 | 9.6 | 20.0 | 0.00 | 0.00 | 0.00 | 100 | 902.1 |
| 20260905101518 | 53 | 262 | 9.6 | 20.0 | 0.00 | 0.00 | 0.00 | 100 | 903.0 |
| 20260905101424 | 53 | 265 | 9.6 | 20.0 | 0.00 | 0.00 | 0.00 | 100 | 904.0 |
| 20260905101309 | 54 | 264 | 9.6 | 20.0 | 0.00 | 0.00 | 0.00 | 100 | 907.7 |
| 20260905101208 | 54 | 269 | 8.7 | 20.0 | 0.00 | 0.00 | 0.00 | 100 | 902.1 |
| 20260905101059 | 54 | 268 | 8.7 | 20.0 | 0.00 | 0.00 | 0.00 | 100 | 906.5 |
| 20260905101016 | 54 | 266 | 9.6 | 20.0 | 0.00 | 0.00 | 0.00 | 100 | 906.5 |
| 20260905100902 | 54 | 253 | 10.4 | 20.9 | 0.00 | 0.00 | 0.00 | 100 | 902.0 |
| 20260905100807 | 54 | 252 | 12.2 | 20.9 | 0.00 | 0.00 | 0.00 | 100 | 902.0 |
| 20260905100653 | 54 | 249 | 13.9 | 20.9 | 0.00 | 0.00 | 0.00 | 100 | 901.8 |
| 20260905100559 | 54 | 248 | 13.9 | 20.9 | 0.00 | 0.00 | 0.00 | 100 | 902.3 |
| 20260905100444 | 54 | 249 | 14.8 | 20.9 | 0.00 | 0.00 | 0.00 | 100 | 903.3 |
| 20260905100350 | 54 | 250 | 14.8 | 21.7 | 0.00 | 0.00 | 0.00 | 100 | 905.9 |
| 20260905100235 | 54 | 249 | 15.6 | 26.9 | 0.00 | 0.00 | 0.00 | 100 | 901.8 |
| 20260905100131 | 53 | 249 | 16.5 | 26.9 | 0.00 | 0.00 | 0.00 | 100 | 901.3 |
| 20260905100026 | 53 | 250 | 16.5 | 26.9 | 0.00 | 0.00 | 0.00 | 100 | 901.1 |
| 20260905095932 | 54 | 249 | 17.4 | 26.9 | 0.00 | 0.00 | 0.00 | 100 | 902.1 |
| 20260905095818 | 54 | 252 | 15.6 | 26.9 | 0.00 | 0.00 | 0.00 | 100 | 905.1 |
| 20260905095724 | 54 | 252 | 14.8 | 25.2 | 0.00 | 0.00 | 0.00 | 100 | 908.1 |
| 20260905095609 | 53 | 254 | 13.0 | 25.2 | 0.00 | 0.00 | 0.00 | 100 | 903.5 |
| 20260905095515 | 53 | 255 | 13.0 | 21.7 | 0.00 | 0.00 | 0.00 | 100 | 903.5 |
| 20260905095400 | 53 | 254 | 13.0 | 21.7 | 0.00 | 0.00 | 0.00 | 100 | 901.3 |
| 20260905095317 | 54 | 254 | 13.0 | 21.7 | 0.00 | 0.00 | 0.00 | 100 | 901.5 |
| 20260905095202 | 54 | 255 | 12.2 | 21.7 | 0.00 | 0.00 | 0.00 | 100 | 901.5 |
| 20260905095058 | 53 | 257 | 12.2 | 20.0 | 0.00 | 0.00 | 0.00 | 100 | 904.6 |
| 20260905094953 | 53 | 258 | 11.3 | 20.0 | 0.00 | 0.00 | 0.00 | 100 | 906.1 |
| 20260905094859 | 53 | 257 | 10.4 | 21.7 | 0.00 | 0.00 | 0.00 | 100 | 901.0 |
| 20260905094744 | 53 | 257 | 11.3 | 21.7 | 0.00 | 0.00 | 0.00 | 100 | 901.8 |
| 20260905094650 | 53 | 252 | 12.2 | 22.6 | 0.00 | 0.00 | 0.00 | 100 | 903.8 |
| 20260905094536 | 53 | 250 | 13.9 | 25.2 | 0.00 | 0.00 | 0.00 | 100 | 906.0 |
| 20260905094443 | 53 | 249 | 16.5 | 24.3 | 0.00 | 0.00 | 0.00 | 100 | 906.0 |
| 20260905094327 | 53 | 248 | 16.5 | 24.3 | 0.00 | 0.00 | 0.00 | 100 | 900.5 |
| 20260905094234 | 53 | 250 | 15.6 | 24.3 | 0.00 | 0.00 | 0.00 | 100 | 900.5 |
| 20260905094118 | 53 | 252 | 13.9 | 24.3 | 0.00 | 0.00 | 0.00 | 100 | 900.3 |
| 20260905094014 | 53 | 254 | 13.9 | 26.1 | 0.00 | 0.00 | 0.00 | 100 | 900.4 |
| 20260905093909 | 53 | 255 | 14.8 | 24.3 | 0.00 | 0.00 | 0.00 | 100 | 903.7 |
| 20260905093819 | 53 | 254 | 14.8 | 24.3 | 0.00 | 0.00 | 0.00 | 100 | 909.7 |
| 20260905093701 | 53 | 255 | 14.8 | 24.3 | 0.00 | 0.00 | 0.00 | 100 | 904.5 |
| 20260905093618 | 53 | 254 | 13.9 | 24.3 | 0.00 | 0.00 | 0.00 | 100 | 901.3 |
| 20260905093503 | 53 | 254 | 13.9 | 23.5 | 0.00 | 0.00 | 0.00 | 100 | 902.5 |
| 20260905093408 | 52 | 254 | 13.0 | 22.6 | 0.00 | 0.00 | 0.00 | 100 | 905.6 |
| 20260905093254 | 52 | 253 | 13.9 | 22.6 | 0.00 | 0.00 | 0.00 | 100 | 901.8 |
| 20260905093202 | 52 | 251 | 14.8 | 23.5 | 0.00 | 0.00 | 0.00 | 100 | 901.8 |
| 20260905093045 | 53 | 250 | 15.6 | 23.5 | 0.00 | 0.00 | 0.00 | 100 | 905.3 |
| 20260905092951 | 53 | 251 | 14.8 | 23.5 | 0.00 | 0.00 | 0.00 | 100 | 901.3 |
| 20260905092836 | 52 | 252 | 13.9 | 23.5 | 0.00 | 0.00 | 0.00 | 100 | 901.3 |
| 20260905092742 | 52 | 254 | 13.0 | 20.9 | 0.00 | 0.00 | 0.00 | 100 | 902.5 |
| 20260905092627 | 52 | 254 | 12.2 | 19.1 | 0.00 | 0.00 | 0.00 | 100 | 901.2 |
| 20260905092540 | 52 | 255 | 12.2 | 19.1 | 0.00 | 0.00 | 0.00 | 100 | 901.2 |
| 20260905092419 | 52 | 255 | 12.2 | 19.1 | 0.00 | 0.00 | 0.00 | 100 | 901.9 |
| 20260905092325 | 53 | 254 | 12.2 | 19.1 | 0.00 | 0.00 | 0.00 | 100 | 905.2 |
| 20260905092210 | 53 | 254 | 11.3 | 20.0 | 0.00 | 0.00 | 0.00 | 100 | 902.3 |
| 20260905092126 | 52 | 252 | 12.2 | 24.3 | 0.00 | 0.00 | 0.00 | 100 | 904.2 |
| 20260905092001 | 52 | 251 | 12.2 | 24.3 | 0.00 | 0.00 | 0.00 | 100 | 906.0 |
| 20260905091919 | 52 | 250 | 13.0 | 24.3 | 0.00 | 0.00 | 0.00 | 100 | 906.0 |
| 20260905091908 | 52 | 250 | 13.0 | 24.3 | 0.00 | 0.00 | 0.00 | 100 | 900.9 |
| 20260905091802 | 52 | 250 | 13.0 | 24.3 | 0.00 | 0.00 | 0.00 | 100 | 900.9 |
| 20260905091709 | 53 | 252 | 12.2 | 20.0 | 0.00 | 0.00 | 0.00 | 100 | 901.6 |
| 20260905091554 | 52 | 252 | 13.0 | 21.7 | 0.00 | 0.00 | 0.00 | 100 | 901.8 |
| 20260905091500 | 52 | 253 | 13.0 | 21.7 | 0.00 | 0.00 | 0.00 | 100 | 906.5 |
| 20260905091345 | 52 | 254 | 13.0 | 21.7 | 0.00 | 0.00 | 0.00 | 100 | 902.9 |
| 20260905091250 | 52 | 255 | 12.2 | 21.7 | 0.00 | 0.00 | 0.00 | 100 | 905.9 |
| 20260905091136 | 52 | 256 | 12.2 | 18.2 | 0.00 | 0.00 | 0.00 | 100 | 901.6 |
| 20260905091043 | 52 | 255 | 12.2 | 17.4 | 0.00 | 0.00 | 0.00 | 100 | 901.7 |
| 20260905090928 | 52 | 255 | 12.2 | 20.0 | 0.00 | 0.00 | 0.00 | 100 | 903.0 |
| 20260905090823 | 51 | 255 | 12.2 | 20.0 | 0.00 | 0.00 | 0.00 | 100 | 906.3 |
| 20260905090718 | 51 | 255 | 12.2 | 20.0 | 0.00 | 0.00 | 0.00 | 100 | 900.5 |
| 20260905090624 | 51 | 256 | 12.2 | 20.0 | 0.00 | 0.00 | 0.00 | 100 | 900.5 |
| 20260905090509 | 51 | 256 | 12.2 | 20.0 | 0.00 | 0.00 | 0.00 | 100 | 903.5 |
| 20260905090416 | 51 | 256 | 12.2 | 20.0 | 0.00 | 0.00 | 0.00 | 100 | 903.5 |
| 20260905090301 | 51 | 256 | 12.2 | 19.1 | 0.00 | 0.00 | 0.00 | 100 | 905.1 |
| 20260905090217 | 51 | 255 | 12.2 | 20.0 | 0.00 | 0.00 | 0.00 | 100 | 900.2 |
| 20260905090009 | 51 | 256 | 13.0 | 20.9 | 0.00 | 0.00 | 0.00 | 100 | 903.9 |
| 20260905085854 | 51 | 256 | 13.9 | 21.7 | 0.00 | 0.00 | 0.00 | 100 | 907.1 |
| 20260905085750 | 51 | 255 | 13.9 | 21.7 | 0.00 | 0.00 | 0.00 | 100 | 905.7 |
| 20260905085645 | 51 | 253 | 14.8 | 21.7 | 0.00 | 0.00 | 0.00 | 100 | 900.5 |
| 20260905085550 | 51 | 250 | 14.8 | 22.6 | 0.00 | 0.00 | 0.00 | 100 | 904.6 |
| 20260905085436 | 51 | 249 | 14.8 | 22.6 | 0.00 | 0.00 | 0.00 | 100 | 901.9 |
| 20260905085343 | 51 | 249 | 14.8 | 20.0 | 0.00 | 0.00 | 0.00 | 100 | 901.9 |
| 20260905085228 | 51 | 250 | 14.8 | 20.0 | 0.00 | 0.00 | 0.00 | 100 | 902.8 |
| 20260905085134 | 51 | 249 | 13.9 | 20.0 | 0.00 | 0.00 | 0.00 | 100 | 902.2 |
| 20260905085019 | 51 | 249 | 13.9 | 20.9 | 0.00 | 0.00 | 0.00 | 100 | 899.8 |
| 20260905084925 | 51 | 249 | 13.9 | 21.7 | 0.00 | 0.00 | 0.00 | 100 | 900.6 |
| 20260905084811 | 51 | 250 | 13.0 | 21.7 | 0.00 | 0.00 | 0.00 | 100 | 903.5 |
| 20260905084706 | 51 | 250 | 13.0 | 21.7 | 0.00 | 0.00 | 0.00 | 100 | 906.2 |
| 20260905084601 | 51 | 250 | 12.2 | 20.0 | 0.00 | 0.00 | 0.00 | 100 | 900.3 |
| 20260905084518 | 51 | 250 | 12.2 | 20.0 | 0.00 | 0.00 | 0.00 | 100 | 900.1 |
| 20260905084403 | 51 | 250 | 11.3 | 18.2 | 0.00 | 0.00 | 0.00 | 100 | 901.0 |
| 20260905084309 | 50 | 250 | 10.4 | 17.4 | 0.00 | 0.00 | 0.00 | 100 | 910.1 |
| 20260905084154 | 50 | 249 | 10.4 | 18.2 | 0.00 | 0.00 | 0.00 | 100 | 904.9 |
| 20260905084100 | 50 | 250 | 10.4 | 14.8 | 0.00 | 0.00 | 0.00 | 100 | 904.9 |
| 20260905083946 | 50 | 249 | 10.4 | 14.8 | 0.00 | 0.00 | 0.00 | 100 | 900.7 |
| 20260905083853 | 50 | 248 | 10.4 | 14.8 | 0.00 | 0.00 | 0.00 | 100 | 902.6 |
| 20260905083737 | 51 | 248 | 11.3 | 17.4 | 0.00 | 0.00 | 0.00 | 100 | 907.0 |
| 20260905083633 | 50 | 250 | 11.3 | 17.4 | 0.00 | 0.00 | 0.00 | 100 | 901.8 |
| 20260905083527 | 50 | 251 | 11.3 | 17.4 | 0.00 | 0.00 | 0.00 | 100 | 900.6 |
| 20260905083434 | 50 | 252 | 11.3 | 17.4 | 0.00 | 0.00 | 0.00 | 100 | 902.0 |
| 20260905083319 | 50 | 252 | 11.3 | 17.4 | 0.00 | 0.00 | 0.00 | 100 | 905.6 |
| 20260905083226 | 50 | 250 | 11.3 | 17.4 | 0.00 | 0.00 | 0.00 | 100 | 901.1 |
| 20260905083111 | 50 | 250 | 10.4 | 17.4 | 0.00 | 0.00 | 0.00 | 100 | 903.3 |
| 20260905083017 | 50 | 249 | 11.3 | 17.4 | 0.00 | 0.00 | 0.00 | 100 | 901.5 |
| 20260905082902 | 51 | 250 | 10.4 | 16.5 | 0.00 | 0.00 | 0.00 | 100 | 904.3 |
| 20260905082819 | 51 | 249 | 10.4 | 16.5 | 0.00 | 0.00 | 0.00 | 100 | 904.3 |
| 20260905082704 | 51 | 249 | 10.4 | 16.5 | 0.00 | 0.00 | 0.00 | 100 | 901.5 |
| 20260905082630 | 50 | 250 | 10.4 | 15.6 | 0.00 | 0.00 | 0.00 | 100 | 904.3 |
| 20260905082553 | 50 | 250 | 10.4 | 15.6 | 0.00 | 0.00 | 0.00 | 100 | 904.3 |
| 20260905082441 | 50 | 252 | 10.4 | 15.6 | 0.00 | 0.00 | 0.00 | 100 | 903.1 |
| 20260905082228 | 50 | 253 | 11.3 | 17.4 | 0.00 | 0.00 | 0.00 | 100 | 900.6 |
| 20260905082004 | 50 | 251 | 11.3 | 17.4 | 0.00 | 0.00 | 0.00 | 100 | 908.7 |
| 20260905081740 | 50 | 251 | 11.3 | 15.6 | 0.00 | 0.00 | 0.00 | 100 | 900.9 |
| 20260905081516 | 50 | 252 | 12.2 | 17.4 | 0.00 | 0.00 | 0.00 | 100 | 907.4 |
| 20260905081405 | 50 | 250 | 13.0 | 20.9 | 0.00 | 0.00 | 0.00 | 100 | |
| 20260905081226 | 50 | 244 | 13.9 | 20.9 | 0.00 | 0.00 | 0.00 | 100 | 900.2 |
| 20260905081114 | 50 | 243 | 13.9 | 20.9 | 0.00 | 0.00 | 0.00 | 100 | 908.5 |
| 20260905081001 | 50 | 242 | 13.0 | 19.1 | 0.00 | 0.00 | 0.00 | 100 | 900.3 |
| 20260905080736 | 50 | 241 | 12.2 | 17.4 | 0.00 | 0.00 | 0.00 | 100 | 909.5 |
| 20260905080515 | 50 | 244 | 10.4 | 16.5 | 0.00 | 0.00 | 0.00 | 100 | 900.0 |
| 20260905080253 | 50 | 247 | 11.3 | 18.2 | 0.00 | 0.00 | 0.00 | 100 | 906.2 |
| 20260905080032 | 50 | 247 | 10.4 | 16.5 | 0.00 | 0.00 | 0.00 | 100 | 901.1 |
| 20260905075922 | 50 | 247 | 10.4 | 16.5 | 0.00 | 0.00 | 0.00 | 100 | |
| 20260905075744 | 50 | 240 | 11.3 | 19.1 | 0.00 | 0.00 | 0.00 | 100 | 905.0 |
| 20260905075632 | 50 | 241 | 11.3 | 19.1 | 0.00 | 0.00 | 0.00 | 100 | 900.4 |
| 20260905075520 | 50 | 240 | 12.2 | 19.1 | 0.00 | 0.00 | 0.00 | 100 | 902.4 |
| 20260905075259 | 50 | 250 | 11.3 | 17.4 | 0.00 | 0.00 | 0.00 | 100 | 903.2 |
| 20260905075036 | 50 | 250 | 12.2 | 17.4 | 0.00 | 0.00 | 0.00 | 100 | 905.3 |
| 20260905074813 | 50 | 245 | 12.2 | 17.4 | 0.00 | 0.00 | 0.00 | 100 | 902.1 |
| 20260905074552 | 50 | 240 | 13.9 | 20.9 | 0.00 | 0.00 | 0.00 | 100 | 901.3 |
| 20260905074440 | 50 | 240 | 13.9 | 20.9 | 0.00 | 0.00 | 0.00 | 100 | |
| 20260905074301 | 50 | 244 | 13.0 | 20.9 | 0.00 | 0.00 | 0.00 | 100 | 902.2 |
| 20260905074152 | 50 | 243 | 13.0 | 20.0 | 0.00 | 0.00 | 0.00 | 100 | 901.1 |
| 20260905074038 | 50 | 243 | 12.2 | 20.0 | 0.00 | 0.00 | 0.00 | 100 | 905.3 |
| 20260905073817 | 50 | 243 | 12.2 | 18.2 | 0.00 | 0.00 | 0.00 | 100 | 901.0 |
| 20260905073556 | 50 | 245 | 12.2 | 18.2 | 0.00 | 0.00 | 0.00 | 100 | 903.8 |
| 20260905073333 | 50 | 249 | 12.2 | 18.2 | 0.00 | 0.00 | 0.00 | 100 | 905.5 |
| 20260905073112 | 50 | 248 | 11.3 | 16.5 | 0.00 | 0.00 | 0.00 | 100 | 899.5 |
| 20260905073000 | 50 | 249 | 11.3 | 16.5 | 0.00 | 0.00 | 0.00 | 100 | |
| 20260905072822 | 50 | 248 | 11.3 | 18.2 | 0.00 | 0.00 | 0.00 | 100 | 902.3 |
| 20260905072711 | 50 | 248 | 11.3 | 18.2 | 0.00 | 0.00 | 0.00 | 100 | 902.3 |
| 20260905072557 | 50 | 249 | 11.3 | 18.2 | 0.00 | 0.00 | 0.00 | 100 | 900.3 |
| 20260905072337 | 50 | 252 | 10.4 | 15.6 | 0.00 | 0.00 | 0.00 | 100 | 905.3 |
| 20260905072116 | 50 | 250 | 10.4 | 16.5 | 0.00 | 0.00 | 0.00 | 100 | 901.8 |
| 20260905071854 | 50 | 252 | 10.4 | 16.5 | 0.00 | 0.00 | 0.00 | 100 | 905.3 |
| 20260905071631 | 50 | 255 | 10.4 | 19.1 | 0.00 | 0.00 | 0.00 | 100 | 905.7 |
| 20260905071521 | 50 | 254 | 10.4 | 19.1 | 0.00 | 0.00 | 0.00 | 100 | |
| 20260905071343 | 50 | 255 | 9.6 | 19.1 | 0.00 | 0.00 | 0.00 | 100 | 902.3 |
| 20260905071232 | 50 | 256 | 8.7 | 19.1 | 0.00 | 0.00 | 0.00 | 100 | 904.2 |
| 20260905071119 | 50 | 260 | 9.6 | 19.1 | 0.00 | 0.00 | 0.00 | 100 | 899.9 |
| 20260905070857 | 50 | 257 | 10.4 | 18.2 | 0.00 | 0.00 | 0.00 | 100 | 907.7 |
| 20260905070635 | 50 | 257 | 8.7 | 18.2 | 0.00 | 0.00 | 0.00 | 100 | 900.1 |
| 20260905070413 | 50 | 262 | 7.8 | 16.5 | 0.00 | 0.00 | 0.00 | 100 | 904.8 |
| 20260905070152 | 50 | 263 | 7.0 | 13.0 | 0.00 | 0.00 | 0.00 | 100 | 900.9 |
| 20260905070041 | 50 | 261 | 7.0 | 13.9 | 0.00 | 0.00 | 0.00 | 100 | |
| 20260905065815 | 50 | 258 | 8.7 | 14.8 | 0.00 | 0.00 | 0.00 | 100 | 905.4 |
| 20260905065548 | 50 | 254 | 7.8 | 13.9 | 0.00 | 0.00 | 0.00 | 100 | 905.2 |
| 20260905065323 | 50 | 255 | 9.6 | 14.8 | 0.00 | 0.00 | 0.00 | 100 | 900.5 |
| 20260905065100 | 50 | 257 | 10.4 | 16.5 | 0.00 | 0.00 | 0.00 | 100 | 900.6 |
| 20260905064948 | 50 | 255 | 9.6 | 16.5 | 0.00 | 0.00 | 0.00 | 100 | 900.6 |
| 20260905064835 | 50 | 254 | 9.6 | 17.4 | 0.00 | 0.00 | 0.00 | 100 | 904.2 |
| 20260905064613 | 50 | 251 | 11.3 | 17.4 | 0.00 | 0.00 | 0.00 | 100 | 901.3 |
| 20260905064404 | 50 | 250 | 12.2 | 17.4 | 0.00 | 0.00 | 0.00 | 100 | 903.3 |
| 20260905064155 | 50 | 250 | 11.3 | 17.4 | 0.00 | 0.00 | 0.00 | 100 | 905.3 |
| 20260905063947 | 50 | 249 | 10.4 | 15.6 | 0.00 | 0.00 | 0.00 | 100 | 898.9 |
| 20260905063844 | 50 | 251 | 10.4 | 17.4 | 0.00 | 0.00 | 0.00 | 100 | 906.6 |
| 20260905063749 | 50 | 252 | 10.4 | 17.4 | 0.00 | 0.00 | 0.00 | 100 | 906.6 |
| 20260905063738 | 50 | 252 | 10.4 | 17.4 | 0.00 | 0.00 | 0.00 | 100 | 905.1 |
| 20260905063540 | 50 | 254 | 10.4 | 15.6 | 0.00 | 0.00 | 0.00 | 100 | 899.9 |
| 20260905063331 | 50 | 253 | 10.4 | 14.8 | 0.00 | 0.00 | 0.00 | 100 | 900.1 |
| 20260905063122 | 50 | 253 | 9.6 | 15.6 | 0.00 | 0.00 | 0.00 | 100 | 901.0 |
| 20260905063006 | 50 | 253 | 9.6 | 16.5 | 0.00 | 0.00 | 0.00 | 100 | 903.0 |
| 20260905062944 | 50 | 252 | 9.6 | 16.5 | 0.00 | 0.00 | 0.00 | 100 | 903.0 |
| 20260905062908 | 51 | 252 | 10.4 | 16.5 | 0.00 | 0.00 | 0.00 | 100 | 899.8 |
| 20260905062758 | 51 | 250 | 10.4 | 16.5 | 0.00 | 0.00 | 0.00 | 100 | 903.3 |
| 20260905062643 | 51 | 250 | 10.4 | 15.6 | 0.00 | 0.00 | 0.00 | 100 | 902.0 |
| 20260905062442 | 51 | 245 | 11.3 | 18.2 | 0.00 | 0.00 | 0.00 | 100 | 899.7 |
| 20260905062232 | 51 | 245 | 12.2 | 19.1 | 0.00 | 0.00 | 0.00 | 100 | 904.6 |
| 20260905062011 | 51 | 248 | 13.0 | 20.0 | 0.00 | 0.00 | 0.00 | 100 | 906.9 |
| 20260905061803 | 51 | 249 | 12.2 | 18.2 | 0.00 | 0.00 | 0.00 | 100 | 904.1 |
| 20260905061659 | 51 | 250 | 12.2 | 18.2 | 0.00 | 0.00 | 0.00 | 100 | 903.9 |
| 20260905061553 | 51 | 252 | 12.2 | 20.9 | 0.00 | 0.00 | 0.00 | 100 | 900.4 |
| 20260905061406 | 51 | 253 | 11.3 | 20.9 | 0.00 | 0.00 | 0.00 | 100 | 900.3 |
| 20260905061355 | 51 | 253 | 11.3 | 20.9 | 0.00 | 0.00 | 0.00 | 100 | 905.4 |
| 20260905061147 | 51 | 257 | 9.6 | 17.4 | 0.00 | 0.00 | 0.00 | 100 | 903.6 |
| 20260905060937 | 51 | 263 | 8.7 | 15.6 | 0.00 | 0.00 | 0.00 | 100 | 907.4 |
| 20260905060729 | 51 | 255 | 8.7 | 15.6 | 0.00 | 0.00 | 0.00 | 100 | 898.8 |
| 20260905060626 | 51 | 255 | 9.6 | 15.6 | 0.00 | 0.00 | 0.00 | 100 | 908.3 |
| 20260905060520 | 51 | 256 | 9.6 | 19.1 | 0.00 | 0.00 | 0.00 | 100 | 902.4 |
| 20260905060311 | 51 | 258 | 9.6 | 19.1 | 0.00 | 0.00 | 0.00 | 100 | 906.8 |
| 20260905055904 | 52 | 257 | 10.4 | 21.7 | 0.00 | 0.00 | 0.00 | 100 | 901.5 |
| 20260905055854 | 52 | 257 | 10.4 | 21.7 | 0.00 | 0.00 | 0.00 | 100 | 903.2 |
| 20260905055656 | 52 | 260 | 10.4 | 21.7 | 0.00 | 0.00 | 0.00 | 100 | 900.4 |
| 20260905055553 | 52 | 257 | 10.4 | 19.1 | 0.00 | 0.00 | 0.00 | 100 | 906.0 |
| 20260905055442 | 52 | 258 | 10.4 | 19.1 | 0.00 | 0.00 | 0.00 | 100 | 904.5 |
| 20260905055234 | 52 | 272 | 9.6 | 17.4 | 0.00 | 0.00 | 0.00 | 100 | 901.5 |
| 20260905055025 | 52 | 277 | 7.8 | 15.6 | 0.00 | 0.00 | 0.00 | 100 | 899.2 |
| 20260905054816 | 52 | 266 | 8.7 | 16.5 | 0.00 | 0.00 | 0.00 | 100 | 903.0 |
| 20260905054619 | 52 | 270 | 8.7 | 16.5 | 0.00 | 0.00 | 0.00 | 100 | 902.0 |
| 20260905054608 | 53 | 270 | 8.7 | 16.5 | 0.00 | 0.00 | 0.00 | 100 | 901.7 |
| 20260905054505 | 53 | 269 | 8.7 | 16.5 | 0.00 | 0.00 | 0.00 | 100 | 901.7 |
| 20260905054358 | 52 | 261 | 8.7 | 16.5 | 0.00 | 0.00 | 0.00 | 100 | 899.7 |
| 20260905054201 | 52 | 257 | 7.8 | 16.5 | 0.00 | 0.00 | 0.00 | 100 | 904.1 |
| 20260905053952 | 52 | 256 | 7.8 | 16.5 | 0.00 | 0.00 | 0.00 | 100 | 899.4 |
| 20260905053743 | 53 | 256 | 7.8 | 13.0 | 0.00 | 0.00 | 0.00 | 100 | 904.7 |
| 20260905053545 | 52 | 259 | 7.0 | 13.0 | 0.00 | 0.00 | 0.00 | 100 | 898.8 |
| 20260905053535 | 52 | 259 | 7.0 | 13.0 | 0.00 | 0.00 | 0.00 | 100 | 901.8 |
| 20260905053431 | 52 | 260 | 7.0 | 13.0 | 0.00 | 0.00 | 0.00 | 100 | 906.1 |
| 20260905053325 | 52 | 255 | 8.7 | 16.5 | 0.00 | 0.00 | 0.00 | 100 | 906.1 |
| 20260905053117 | 52 | 254 | 10.4 | 16.5 | 0.00 | 0.00 | 0.00 | 100 | 899.3 |
| 20260905052908 | 53 | 255 | 9.6 | 14.8 | 0.00 | 0.00 | 0.00 | 100 | 904.3 |
| 20260905052659 | 53 | 261 | 7.8 | 13.9 | 0.00 | 0.00 | 0.00 | 100 | 899.4 |
| 20260905052502 | 53 | 260 | 7.0 | 15.6 | 0.00 | 0.00 | 0.00 | 100 | 905.4 |
| 20260905052358 | 53 | 261 | 7.8 | 15.6 | 0.00 | 0.00 | 0.00 | 100 | 898.9 |
| 20260905052306 | 53 | 265 | 7.8 | 15.6 | 0.00 | 0.00 | 0.00 | 100 | 898.9 |
| 20260905052251 | 53 | 265 | 7.8 | 15.6 | 0.00 | 0.00 | 0.00 | 100 | 899.6 |
| 20260905052043 | 53 | 277 | 7.0 | 15.6 | 0.00 | 0.00 | 0.00 | 100 | 901.7 |
| 20260905051834 | 53 | 281 | 7.0 | 16.5 | 0.00 | 0.00 | 0.00 | 100 | 899.3 |
| 20260905051625 | 53 | 286 | 9.6 | 19.1 | 0.00 | 0.00 | 0.00 | 100 | 902.6 |
| 20260905051417 | 53 | 290 | 9.6 | 19.1 | 0.00 | 0.00 | 0.00 | 100 | 902.6 |
| 20260905051314 | 53 | 289 | 8.7 | 19.1 | 0.00 | 0.00 | 0.00 | 100 | 899.2 |
| 20260905051207 | 53 | 290 | 8.7 | 17.4 | 0.00 | 0.00 | 0.00 | 100 | 900.4 |
| 20260905050959 | 53 | 292 | 8.7 | 15.6 | 0.00 | 0.00 | 0.00 | 100 | 905.8 |
| 20260905050801 | 53 | 293 | 8.7 | 18.2 | 0.00 | 0.00 | 0.00 | 100 | 905.9 |
| 20260905050552 | 53 | 297 | 8.7 | 18.2 | 0.00 | 0.00 | 0.00 | 100 | 899.2 |
| 20260905050343 | 54 | 295 | 7.8 | 13.9 | 0.00 | 0.00 | 0.00 | 100 | 909.5 |
| 20260905050240 | 54 | 294 | 8.7 | 14.8 | 0.00 | 0.00 | 0.00 | 100 | 902.1 |
| 20260905050134 | 54 | 295 | 8.7 | 14.8 | 0.00 | 0.00 | 0.00 | 100 | 899.5 |
| 20260905045926 | 54 | 308 | 7.0 | 15.6 | 0.00 | 0.00 | 0.00 | 100 | 900.5 |
| 20260905045728 | 54 | 301 | 6.1 | 15.6 | 0.00 | 0.00 | 0.00 | 100 | 902.6 |
| 20260905045717 | 54 | 301 | 6.1 | 15.6 | 0.00 | 0.00 | 0.00 | 100 | 903.8 |
| 20260905045508 | 54 | 294 | 8.7 | 18.2 | 0.00 | 0.00 | 0.00 | 100 | 901.0 |
| 20260905045300 | 54 | 291 | 11.3 | 21.7 | 0.00 | 0.00 | 0.00 | 100 | 899.5 |
| 20260905045156 | 54 | 291 | 10.4 | 21.7 | 0.00 | 0.00 | 0.00 | 100 | 903.8 |
| 20260905045101 | 54 | 292 | 9.6 | 21.7 | 0.00 | 0.00 | 0.00 | 100 | 904.3 |
| 20260905044852 | 54 | 296 | 7.8 | 17.4 | 0.00 | 0.00 | 0.00 | 100 | 899.6 |
| 20260905044644 | 54 | 297 | 8.7 | 17.4 | 0.00 | 0.00 | 0.00 | 100 | 903.6 |
| 20260905044447 | 54 | 294 | 9.6 | 16.5 | 0.00 | 0.00 | 0.00 | 100 | 904.3 |
| 20260905044435 | 54 | 294 | 9.6 | 16.5 | 0.00 | 0.00 | 0.00 | 100 | 899.6 |
| 20260905044226 | 54 | 289 | 7.8 | 17.4 | 0.00 | 0.00 | 0.00 | 100 | 899.5 |
| 20260905044123 | 54 | 289 | 7.8 | 17.4 | 0.00 | 0.00 | 0.00 | 100 | 899.3 |
| 20260905044017 | 54 | 290 | 7.0 | 13.9 | 0.00 | 0.00 | 0.00 | 100 | 900.8 |
| 20260905043808 | 54 | 295 | 7.8 | 13.9 | 0.00 | 0.00 | 0.00 | 100 | 906.8 |
| 20260905043600 | 54 | 294 | 8.7 | 14.8 | 0.00 | 0.00 | 0.00 | 100 | 899.1 |
| 20260905043402 | 54 | 292 | 8.7 | 15.6 | 0.00 | 0.00 | 0.00 | 100 | 900.2 |
| 20260905043205 | 54 | 294 | 7.8 | 15.6 | 0.00 | 0.00 | 0.00 | 100 | 902.4 |
| 20260905043153 | 54 | 294 | 7.8 | 15.6 | 0.00 | 0.00 | 0.00 | 100 | 904.2 |
| 20260905043050 | 54 | 293 | 8.7 | 15.6 | 0.00 | 0.00 | 0.00 | 100 | 904.2 |
| 20260905042943 | 54 | 292 | 8.7 | 17.4 | 0.00 | 0.00 | 0.00 | 100 | 899.8 |
| 20260905042735 | 53 | 287 | 8.7 | 17.4 | 0.00 | 0.00 | 0.00 | 100 | 901.6 |
| 20260905042526 | 53 | 280 | 6.1 | 14.8 | 0.00 | 0.00 | 0.00 | 100 | 901.1 |
| 20260905042317 | 54 | 281 | 5.2 | 14.8 | 0.00 | 0.00 | 0.00 | 100 | 900.3 |
| 20260905042109 | 54 | 279 | 5.2 | 13.0 | 0.00 | 0.00 | 0.00 | 100 | 901.4 |
| 20260905042006 | 54 | 278 | 6.1 | 15.6 | 0.00 | 0.00 | 0.00 | 100 | 899.6 |
| 20260905041911 | 54 | 290 | 8.7 | 18.2 | 0.00 | 0.00 | 0.00 | 100 | 899.6 |
| 20260905041859 | 54 | 290 | 8.7 | 18.2 | 0.00 | 0.00 | 0.00 | 100 | 899.5 |
| 20260905041702 | 54 | 289 | 8.7 | 18.2 | 0.00 | 0.00 | 0.00 | 100 | 900.0 |
| 20260905041453 | 54 | 287 | 6.1 | 13.9 | 0.00 | 0.00 | 0.00 | 100 | 901.4 |
| 20260905041244 | 53 | 293 | 5.2 | 12.2 | 0.00 | 0.00 | 0.00 | 100 | 899.2 |
| 20260905041036 | 54 | 295 | 4.3 | 10.4 | 0.00 | 0.00 | 0.00 | 100 | 899.3 |
| 20260905040932 | 54 | 281 | 6.1 | 13.9 | 0.00 | 0.00 | 0.00 | 100 | 900.0 |
| 20260905040826 | 54 | 255 | 7.0 | 13.9 | 0.00 | 0.00 | 0.00 | 100 | 906.2 |
| 20260905040629 | 53 | 250 | 8.7 | 14.8 | 0.00 | 0.00 | 0.00 | 100 | 902.7 |
| 20260905040618 | 53 | 250 | 8.7 | 14.8 | 0.00 | 0.00 | 0.00 | 100 | 898.4 |
| 20260905040409 | 54 | 264 | 7.0 | 14.8 | 0.00 | 0.00 | 0.00 | 100 | 902.1 |
| 20260905040200 | 54 | 281 | 6.1 | 13.0 | 0.00 | 0.00 | 0.00 | 100 | 903.5 |
| 20260905040003 | 54 | 283 | 5.2 | 10.4 | 0.00 | 0.00 | 0.00 | 100 | 906.2 |
| 20260905035859 | 54 | 270 | 6.1 | 10.4 | 0.00 | 0.00 | 0.00 | 100 | 900.9 |
| 20260905035753 | 55 | 260 | 5.2 | 9.6 | 0.00 | 0.00 | 0.00 | 100 | 903.8 |
| 20260905035545 | 55 | 251 | 6.1 | 9.6 | 0.00 | 0.00 | 0.00 | 100 | 901.1 |
| 20260905035348 | 55 | 254 | 6.1 | 10.4 | 0.00 | 0.00 | 0.00 | 100 | 902.6 |
| 20260905035336 | 55 | 254 | 6.1 | 10.4 | 0.00 | 0.00 | 0.00 | 100 | 899.9 |
| 20260905035127 | 55 | 264 | 5.2 | 10.4 | 0.00 | 0.00 | 0.00 | 100 | 899.7 |
| 20260905034919 | 55 | 270 | 5.2 | 9.6 | 0.00 | 0.00 | 0.00 | 100 | 900.1 |
| 20260905034815 | 55 | 276 | 6.1 | 15.6 | 0.00 | 0.00 | 0.00 | 100 | 902.5 |
| 20260905034709 | 55 | 283 | 6.1 | 15.6 | 0.00 | 0.00 | 0.00 | 100 | 905.2 |
| 20260905034501 | 55 | 278 | 5.2 | 15.6 | 0.00 | 0.00 | 0.00 | 100 | 900.1 |
| 20260905034314 | 55 | 274 | 5.2 | 12.2 | 0.00 | 0.00 | 0.00 | 100 | 900.5 |
| 20260905034303 | 55 | 274 | 5.2 | 12.2 | 0.00 | 0.00 | 0.00 | 100 | 901.0 |
| 20260905034054 | 55 | 284 | 7.0 | 13.0 | 0.00 | 0.00 | 0.00 | 100 | 905.6 |
| 20260905033846 | 55 | 285 | 5.2 | 13.0 | 0.00 | 0.00 | 0.00 | 100 | 899.6 |
| 20260905033742 | 55 | 284 | 5.2 | 10.4 | 0.00 | 0.00 | 0.00 | 100 | 900.2 |
| 20260905033635 | 55 | 291 | 3.5 | 10.4 | 0.00 | 0.00 | 0.00 | 100 | 903.5 |
| 20260905033427 | 55 | 295 | 3.5 | 7.8 | 0.00 | 0.00 | 0.00 | 100 | 900.3 |
| 20260905033222 | 55 | 291 | 3.5 | 7.8 | 0.00 | 0.00 | 0.00 | 100 | 900.7 |
| 20260905033009 | 55 | 294 | 3.5 | 7.8 | 0.00 | 0.00 | 0.00 | 100 | 900.0 |
| 20260905032801 | 55 | 292 | 4.3 | 10.4 | 0.00 | 0.00 | 0.00 | 100 | 900.1 |
| 20260905032657 | 55 | 295 | 5.2 | 12.2 | 0.00 | 0.00 | 0.00 | 100 | 900.1 |
| 20260905032601 | 55 | 293 | 5.2 | 12.2 | 0.00 | 0.00 | 0.00 | 100 | 900.4 |
| 20260905032353 | 55 | 293 | 4.3 | 12.2 | 0.00 | 0.00 | 0.00 | 100 | 903.8 |
| 20260905032145 | 54 | 290 | 4.3 | 10.4 | 0.00 | 0.00 | 0.00 | 100 | 900.4 |
| 20260905031936 | 55 | 297 | 5.2 | 12.2 | 0.00 | 0.00 | 0.00 | 100 | 899.7 |
| 20260905031728 | 55 | 281 | 4.3 | 12.2 | 0.00 | 0.00 | 0.00 | 100 | 899.6 |
| 20260905031624 | 55 | 277 | 4.3 | 8.7 | 0.00 | 0.00 | 0.00 | 100 | 899.9 |
| 20260905031529 | 55 | 280 | 5.2 | 10.4 | 0.00 | 0.00 | 0.00 | 100 | 899.9 |
| 20260905031518 | 55 | 280 | 5.2 | 10.4 | 0.00 | 0.00 | 0.00 | 100 | 902.1 |
| 20260905031309 | 55 | 301 | 6.1 | 12.2 | 0.00 | 0.00 | 0.00 | 100 | 904.7 |
| 20260905031101 | 55 | 295 | 7.0 | 14.8 | 0.00 | 0.00 | 0.00 | 100 | 899.9 |
| 20260905030857 | 55 | 291 | 6.1 | 14.8 | 0.00 | 0.00 | 0.00 | 100 | 903.4 |
| 20260905030649 | 55 | 298 | 6.1 | 17.4 | 0.00 | 0.00 | 0.00 | 100 | 899.8 |
| 20260905030545 | 55 | 297 | 7.0 | 17.4 | 0.00 | 0.00 | 0.00 | 100 | 900.2 |
| 20260905030439 | 55 | 296 | 7.0 | 17.4 | 0.00 | 0.00 | 0.00 | 100 | 901.3 |
| 20260905030242 | 55 | 295 | 7.8 | 16.5 | 0.00 | 0.00 | 0.00 | 100 | 901.5 |
| 20260905030230 | 55 | 295 | 7.8 | 16.5 | 0.00 | 0.00 | 0.00 | 100 | 900.0 |
| 20260905030022 | 55 | 296 | 7.8 | 13.0 | 0.00 | 0.00 | 0.00 | 100 | 900.4 |
| 20260905025813 | 54 | 296 | 7.0 | 16.5 | 0.00 | 0.00 | 0.00 | 100 | 899.6 |
| 20260905025615 | 55 | 300 | 7.0 | 16.5 | 0.00 | 0.00 | 0.00 | 100 | 899.7 |
| 20260905025405 | 55 | 301 | 7.0 | 15.6 | 0.00 | 0.00 | 0.00 | 100 | 904.4 |
| 20260905025208 | 55 | 298 | 7.0 | 14.8 | 0.00 | 0.00 | 0.00 | 100 | 900.0 |
| 20260905025157 | 55 | 298 | 7.0 | 14.8 | 0.00 | 0.00 | 0.00 | 100 | 900.9 |
| 20260905024949 | 55 | 298 | 6.1 | 13.0 | 0.00 | 0.00 | 0.00 | 100 | 902.4 |
| 20260905024740 | 55 | 303 | 5.2 | 13.0 | 0.00 | 0.00 | 0.00 | 100 | 899.9 |
| 20260905024532 | 55 | 306 | 4.3 | 10.4 | 0.00 | 0.00 | 0.00 | 100 | 900.0 |
| 20260905024428 | 55 | 300 | 4.3 | 10.4 | 0.00 | 0.00 | 0.00 | 100 | 900.4 |
| 20260905024322 | 55 | 304 | 3.5 | 8.7 | 0.00 | 0.00 | 0.00 | 100 | 903.1 |
| 20260905024113 | 55 | 298 | 3.5 | 13.0 | 0.00 | 0.00 | 0.00 | 100 | 900.2 |
| 20260905023915 | 55 | 295 | 5.2 | 17.4 | 0.00 | 0.00 | 0.00 | 100 | 900.0 |
| 20260905023706 | 55 | 305 | 5.2 | 11.3 | 0.00 | 0.00 | 0.00 | 100 | 900.5 |
| 20260905023458 | 55 | 329 | 6.1 | 18.2 | 0.00 | 0.00 | 0.00 | 100 | 903.6 |
| 20260905023355 | 55 | 328 | 7.0 | 18.2 | 0.00 | 0.00 | 0.00 | 100 | 899.9 |
| 20260905023248 | 55 | 320 | 7.0 | 18.2 | 0.00 | 0.00 | 0.00 | 100 | 899.8 |
| 20260905023040 | 55 | 301 | 7.8 | 18.2 | 0.00 | 0.00 | 0.00 | 100 | 902.0 |
| 20260905022831 | 55 | 300 | 7.0 | 18.2 | 0.00 | 0.00 | 0.00 | 100 | 900.4 |
| 20260905022634 | 55 | 316 | 6.1 | 17.4 | 0.00 | 0.00 | 0.00 | 100 | 901.7 |
| 20260905022622 | 55 | 316 | 6.1 | 17.4 | 0.00 | 0.00 | 0.00 | 100 | 903.7 |
| 20260905022414 | 55 | 304 | 6.1 | 17.4 | 0.00 | 0.00 | 0.00 | 100 | 900.1 |
| 20260905022311 | 55 | 297 | 6.1 | 17.4 | 0.00 | 0.00 | 0.00 | 100 | 900.0 |
| 20260905022215 | 55 | 294 | 6.1 | 12.2 | 0.00 | 0.00 | 0.00 | 100 | 900.0 |
| 20260905022006 | 55 | 300 | 6.1 | 11.3 | 0.00 | 0.00 | 0.00 | 100 | 903.2 |
| 20260905021758 | 55 | 299 | 7.0 | 14.8 | 0.00 | 0.00 | 0.00 | 100 | 900.5 |
| 20260905021549 | 55 | 310 | 6.1 | 14.8 | 0.00 | 0.00 | 0.00 | 100 | 903.8 |
| 20260905021351 | 55 | 342 | 4.3 | 11.3 | 0.00 | 0.00 | 0.00 | 100 | 904.2 |
| 20260905021341 | 55 | 342 | 4.3 | 11.3 | 0.00 | 0.00 | 0.00 | 100 | 900.8 |
| 20260905021237 | 55 | 345 | 3.5 | 10.4 | 0.00 | 0.00 | 0.00 | 100 | 901.3 |
| 20260905021131 | 55 | 347 | 3.5 | 10.4 | 0.00 | 0.00 | 0.00 | 100 | 901.3 |
| 20260905020922 | 55 | 349 | 3.5 | 11.3 | 0.00 | 0.00 | 0.00 | 100 | 904.0 |
| 20260905020714 | 55 | 350 | 4.3 | 12.2 | 0.00 | 0.00 | 0.00 | 100 | 900.9 |
| 20260905020516 | 55 | 349 | 4.3 | 8.7 | 0.00 | 0.00 | 0.00 | 100 | 902.1 |
| 20260905020307 | 55 | 346 | 6.1 | 16.5 | 0.00 | 0.00 | 0.00 | 100 | 900.0 |
| 20260905020204 | 55 | 345 | 6.1 | 16.5 | 0.00 | 0.00 | 0.00 | 100 | 900.0 |
| 20260905020109 | 55 | 342 | 6.1 | 16.5 | 0.00 | 0.00 | 0.00 | 100 | 900.0 |
| 20260905020058 | 55 | 342 | 6.1 | 16.5 | 0.00 | 0.00 | 0.00 | 100 | 901.6 |
| 20260905015849 | 55 | 340 | 7.8 | 18.2 | 0.00 | 0.00 | 0.00 | 100 | 904.0 |
| 20260905015641 | 55 | 350 | 8.7 | 18.2 | 0.00 | 0.00 | 0.00 | 100 | 899.8 |
| 20260905015432 | 55 | 352 | 7.8 | 18.2 | 0.00 | 0.00 | 0.00 | 100 | 903.1 |
| 20260905015224 | 55 | 347 | 8.7 | 19.1 | 0.00 | 0.00 | 0.00 | 100 | 900.1 |
| 20260905015120 | 55 | 344 | 7.8 | 16.5 | 0.00 | 0.00 | 0.00 | 100 | 901.3 |
| 20260905015014 | 55 | 344 | 6.1 | 17.4 | 0.00 | 0.00 | 0.00 | 100 | 903.6 |
| 20260905014816 | 55 | 344 | 7.8 | 18.2 | 0.00 | 0.00 | 0.00 | 100 | 900.2 |
| 20260905014607 | 55 | 342 | 7.8 | 17.4 | 0.00 | 0.00 | 0.00 | 100 | 900.9 |
| 20260905014359 | 55 | 333 | 3.5 | 17.4 | 0.00 | 0.00 | 0.00 | 100 | 900.4 |
| 20260905014150 | 55 | 321 | 4.3 | 17.4 | 0.00 | 0.00 | 0.00 | 100 | 900.5 |
| 20260905014046 | 55 | 323 | 4.3 | 17.4 | 0.00 | 0.00 | 0.00 | 100 | 900.6 |
| 20260905013940 | 55 | 313 | 4.3 | 17.4 | 0.00 | 0.00 | 0.00 | 100 | 902.6 |
| 20260905013732 | 55 | 337 | 5.2 | 13.9 | 0.00 | 0.00 | 0.00 | 100 | 900.3 |
| 20260905013535 | 55 | 346 | 6.1 | 13.9 | 0.00 | 0.00 | 0.00 | 100 | 899.9 |
| 20260905013523 | 55 | 346 | 6.1 | 13.9 | 0.00 | 0.00 | 0.00 | 100 | 899.7 |
| 20260905013314 | 55 | 341 | 7.0 | 16.5 | 0.00 | 0.00 | 0.00 | 100 | 899.4 |
| 20260905013117 | 55 | 334 | 7.0 | 16.5 | 0.00 | 0.00 | 0.00 | 100 | 900.1 |
| 20260905013013 | 55 | 333 | 7.0 | 16.5 | 0.00 | 0.00 | 0.00 | 100 | 901.8 |
| 20260905012907 | 55 | 330 | 5.2 | 13.9 | 0.00 | 0.00 | 0.00 | 100 | 905.9 |
| 20260905012658 | 55 | 327 | 3.5 | 10.4 | 0.00 | 0.00 | 0.00 | 100 | 900.5 |
| 20260905012450 | 55 | 331 | 3.5 | 7.8 | 0.00 | 0.00 | 0.00 | 100 | 900.1 |
| 20260905012253 | 55 | 335 | 3.5 | 9.6 | 0.00 | 0.00 | 0.00 | 100 | 900.1 |
| 20260905012241 | 55 | 335 | 3.5 | 9.6 | 0.00 | 0.00 | 0.00 | 100 | 899.9 |
| 20260905012033 | 55 | 347 | 3.5 | 9.6 | 0.00 | 0.00 | 0.00 | 100 | 900.0 |
| 20260905011930 | 55 | 357 | 3.5 | 9.6 | 0.00 | 0.00 | 0.00 | 100 | 901.5 |
| 20260905011823 | 55 | 350 | 3.5 | 9.6 | 0.00 | 0.00 | 0.00 | 100 | 903.8 |
| 20260905011615 | 55 | 339 | 3.5 | 7.8 | 0.00 | 0.00 | 0.00 | 100 | 900.5 |
| 20260905011417 | 55 | 347 | 3.5 | 9.6 | 0.00 | 0.00 | 0.00 | 100 | 901.8 |
| 20260905011218 | 55 | 356 | 6.1 | 13.0 | 0.00 | 0.00 | 0.00 | 100 | 899.8 |
| 20260905011208 | 55 | 356 | 6.1 | 13.0 | 0.00 | 0.00 | 0.00 | 100 | 899.7 |
| 20260905011000 | 55 | 357 | 7.8 | 19.1 | 0.00 | 0.00 | 0.00 | 100 | 899.8 |
| 20260905010856 | 55 | 354 | 7.8 | 19.1 | 0.00 | 0.00 | 0.00 | 100 | 900.0 |
| 20260905010750 | 55 | 353 | 7.0 | 19.1 | 0.00 | 0.00 | 0.00 | 100 | 903.6 |
| 20260905010542 | 55 | 353 | 5.2 | 10.4 | 0.00 | 0.00 | 0.00 | 100 | 900.1 |
| 20260905010333 | 55 | 352 | 5.2 | 14.8 | 0.00 | 0.00 | 0.00 | 100 | 902.1 |
| 20260905010124 | 55 | 334 | 4.3 | 14.8 | 0.00 | 0.00 | 0.00 | 100 | 900.2 |
| 20260905005916 | 55 | 325 | 3.5 | 9.6 | 0.00 | 0.00 | 0.00 | 100 | 900.4 |
| 20260905005812 | 55 | 341 | 3.5 | 12.2 | 0.00 | 0.00 | 0.00 | 100 | 900.3 |
| 20260905005717 | 55 | 356 | 4.3 | 12.2 | 0.00 | 0.00 | 0.00 | 100 | 900.3 |
| 20260905005508 | 55 | 16 | 5.2 | 12.2 | 0.00 | 0.00 | 0.00 | 100 | 902.3 |
| 20260905005259 | 55 | 0 | 5.2 | 12.2 | 0.00 | 0.00 | 0.00 | 100 | 900.1 |
| 20260905005051 | 55 | 359 | 6.1 | 16.5 | 0.00 | 0.00 | 0.00 | 100 | 900.8 |
| 20260905004842 | 56 | 10 | 5.2 | 16.5 | 0.00 | 0.00 | 0.00 | 100 | 899.8 |
| 20260905004739 | 56 | 11 | 5.2 | 13.9 | 0.00 | 0.00 | 0.00 | 100 | 900.1 |
| 20260905004632 | 56 | 7 | 6.1 | 13.0 | 0.00 | 0.00 | 0.00 | 100 | 900.5 |
| 20260905004435 | 56 | 6 | 6.1 | 13.0 | 0.00 | 0.00 | 0.00 | 100 | 904.0 |
| 20260905004424 | 56 | 6 | 6.1 | 13.0 | 0.00 | 0.00 | 0.00 | 100 | 900.1 |
| 20260905004215 | 56 | 351 | 4.3 | 12.2 | 0.00 | 0.00 | 0.00 | 100 | 900.0 |
| 20260905004016 | 56 | 336 | 3.5 | 8.7 | 0.00 | 0.00 | 0.00 | 100 | 899.8 |
| 20260905003808 | 56 | 347 | 4.3 | 8.7 | 0.00 | 0.00 | 0.00 | 100 | 899.5 |
| 20260905003705 | 56 | 349 | 5.2 | 10.4 | 0.00 | 0.00 | 0.00 | 100 | 899.2 |
| 20260905003559 | 56 | 355 | 5.2 | 11.3 | 0.00 | 0.00 | 0.00 | 100 | 899.1 |
| 20260905003401 | 56 | 346 | 5.2 | 15.6 | 0.00 | 0.00 | 0.00 | 100 | 899.4 |
| 20260905003350 | 56 | 346 | 5.2 | 15.6 | 0.00 | 0.00 | 0.00 | 100 | 902.7 |
| 20260905003142 | 56 | 344 | 6.1 | 15.6 | 0.00 | 0.00 | 0.00 | 100 | 906.6 |
| 20260905002933 | 56 | 332 | 5.2 | 13.9 | 0.00 | 0.00 | 0.00 | 100 | 899.8 |
| 20260905002724 | 56 | 325 | 7.0 | 14.8 | 0.00 | 0.00 | 0.00 | 100 | 899.4 |
| 20260905002621 | 56 | 328 | 7.0 | 14.8 | 0.00 | 0.00 | 0.00 | 100 | 899.2 |
| 20260905002521 | 57 | 331 | 6.1 | 14.8 | 0.00 | 0.00 | 0.00 | 100 | 899.2 |
| 20260905002313 | 57 | 338 | 4.3 | 12.2 | 0.00 | 0.00 | 0.00 | 100 | 903.2 |
| 20260905002115 | 57 | 340 | 3.5 | 12.2 | 0.00 | 0.00 | 0.00 | 100 | 901.9 |
| 20260905002104 | 57 | 340 | 3.5 | 12.2 | 0.00 | 0.00 | 0.00 | 100 | 899.7 |
| 20260905001855 | 57 | 340 | 6.1 | 14.8 | 0.00 | 0.00 | 0.00 | 100 | 899.9 |
| 20260905001647 | 57 | 340 | 7.8 | 15.6 | 0.00 | 0.00 | 0.00 | 100 | 902.7 |
| 20260905001544 | 57 | 339 | 7.8 | 15.6 | 0.00 | 0.00 | 0.00 | 100 | 904.5 |
| 20260905001437 | 57 | 337 | 7.0 | 15.6 | 0.00 | 0.00 | 0.00 | 100 | 899.6 |
| 20260905001229 | 57 | 337 | 5.2 | 14.8 | 0.00 | 0.00 | 0.00 | 100 | 899.4 |
| 20260905001020 | 57 | 333 | 4.3 | 12.2 | 0.00 | 0.00 | 0.00 | 100 | 899.5 |
| 20260905000833 | 57 | 334 | 4.3 | 14.8 | 0.00 | 0.00 | 0.00 | 100 | 899.5 |
| 20260905000822 | 57 | 334 | 4.3 | 14.8 | 0.00 | 0.00 | 0.00 | 100 | 899.7 |
| 20260905000614 | 57 | 334 | 5.2 | 14.8 | 0.00 | 0.00 | 0.00 | 100 | 901.9 |
| 20260905000510 | 57 | 334 | 4.3 | 14.8 | 0.00 | 0.00 | 0.00 | 100 | 904.8 |
| 20260905000404 | 57 | 328 | 5.2 | 17.4 | 0.00 | 0.00 | 0.00 | 100 | 900.0 |
| 20260905000156 | 58 | 330 | 5.2 | 17.4 | 0.00 | 0.00 | 0.00 | 100 | 899.9 |
| 20260904235947 | 58 | 333 | 5.2 | 13.9 | 0.00 | 0.00 | 0.00 | 100 | 899.8 |
| 20260904235738 | 58 | 330 | 5.2 | 12.2 | 0.00 | 0.00 | 0.00 | 100 | 899.6 |
| 20260904235541 | 58 | 330 | 3.5 | 12.2 | 0.00 | 0.00 | 0.00 | 100 | 899.7 |
| 20260904235530 | 58 | 330 | 3.5 | 12.2 | 0.00 | 0.00 | 0.00 | 100 | 899.5 |
| 20260904235427 | 58 | 327 | 4.3 | 11.3 | 0.00 | 0.00 | 0.00 | 100 | 899.5 |
| 20260904235320 | 58 | 314 | 3.5 | 9.6 | 0.00 | 0.00 | 0.00 | 100 | 899.5 |
| 20260904235122 | 58 | 302 | 4.3 | 12.2 | 0.00 | 0.00 | 0.00 | 100 | 900.4 |
| 20260904234914 | 58 | 301 | 6.1 | 19.1 | 0.00 | 0.00 | 0.00 | 100 | 904.6 |
| 20260904234705 | 58 | 318 | 7.0 | 19.1 | 0.00 | 0.00 | 0.00 | 100 | 899.7 |
| 20260904234456 | 58 | 326 | 6.1 | 14.8 | 0.00 | 0.00 | 0.00 | 100 | 899.6 |
| 20260904234353 | 58 | 330 | 5.2 | 14.8 | 0.00 | 0.00 | 0.00 | 100 | 899.6 |
| 20260904234247 | 58 | 328 | 4.3 | 14.8 | 0.00 | 0.00 | 0.00 | 100 | 899.6 |
| 20260904234038 | 59 | 330 | 5.2 | 15.6 | 0.00 | 0.00 | 0.00 | 100 | 899.7 |
| 20260904233830 | 59 | 324 | 5.2 | 15.6 | 0.00 | 0.00 | 0.00 | 100 | 899.7 |
| 20260904233621 | 59 | 327 | 6.1 | 15.6 | 0.00 | 0.00 | 0.00 | 100 | 899.6 |
| 20260904233423 | 59 | 328 | 6.1 | 14.8 | 0.00 | 0.00 | 0.00 | 100 | 899.6 |
| 20260904233320 | 59 | 325 | 5.2 | 14.8 | 0.00 | 0.00 | 0.00 | 100 | 899.5 |
| 20260904233213 | 59 | 318 | 5.2 | 13.9 | 0.00 | 0.00 | 0.00 | 100 | 899.6 |
| 20260904233005 | 59 | 324 | 6.1 | 13.9 | 0.00 | 0.00 | 0.00 | 100 | 899.6 |
| 20260904232756 | 60 | 334 | 7.0 | 18.2 | 0.00 | 0.00 | 0.00 | 100 | 899.5 |
| 20260904232547 | 60 | 339 | 7.0 | 17.4 | 0.00 | 0.00 | 0.00 | 100 | 899.4 |
| 20260904232339 | 60 | 337 | 6.1 | 17.4 | 0.00 | 0.00 | 0.00 | 100 | 899.3 |
| 20260904232236 | 60 | 335 | 7.0 | 20.9 | 0.00 | 0.00 | 0.00 | 100 | 899.3 |
| 20260904232129 | 61 | 330 | 7.0 | 20.9 | 0.00 | 0.00 | 0.00 | 100 | 899.2 |
| 20260904231921 | 60 | 325 | 7.0 | 20.9 | 0.00 | 0.00 | 0.00 | 100 | 899.0 |
| 20260904231723 | 60 | 329 | 6.1 | 17.4 | 0.00 | 0.00 | 0.00 | 100 | 899.1 |
| 20260904231514 | 61 | 333 | 7.0 | 19.1 | 0.00 | 0.00 | 0.00 | 100 | 899.0 |
| 20260904231306 | 61 | 339 | 9.6 | 20.0 | 0.00 | 0.00 | 0.00 | 100 | 898.8 |
| 20260904231203 | 62 | 344 | 10.4 | 22.6 | 0.00 | 0.00 | 0.00 | 100 | 898.6 |
| 20260904231056 | 62 | 339 | 10.4 | 22.6 | 0.00 | 0.00 | 0.00 | 100 | 898.4 |
| 20260904230848 | 63 | 335 | 9.6 | 22.6 | 0.00 | 0.00 | 0.00 | 100 | 898.6 |
| 20260904230639 | 64 | 321 | 8.7 | 22.6 | 0.00 | 0.00 | 0.00 | 100 | 898.7 |
| 20260904230442 | 64 | 302 | 8.7 | 19.1 | 0.00 | 0.00 | 0.00 | 100 | 898.8 |
| 20260904230430 | 65 | 302 | 8.7 | 19.1 | 0.00 | 0.00 | 0.00 | 100 | 899.0 |
| 20260904230222 | 65 | 300 | 9.6 | 22.6 | 0.00 | 0.00 | 0.00 | 100 | 898.8 |
| 20260904230119 | 65 | 304 | 10.4 | 23.5 | 0.00 | 0.00 | 0.00 | 100 | 898.9 |
| 20260904230012 | 66 | 308 | 9.6 | 23.5 | 0.00 | 0.00 | 0.00 | 100 | 898.8 |
| 20260904225814 | 66 | 295 | 9.6 | 23.5 | 0.00 | 0.00 | 0.00 | 100 | 899.0 |
| 20260904225609 | 67 | 256 | 12.2 | 25.2 | 0.00 | 0.00 | 0.00 | 100 | 899.1 |
| 20260904225356 | 67 | 245 | 15.6 | 25.2 | 0.00 | 0.00 | 0.00 | 100 | 898.9 |
| 20260904225158 | 67 | 240 | 17.4 | 28.7 | 0.00 | 0.00 | 0.00 | 100 | 898.6 |
| 20260904225148 | 67 | 240 | 17.4 | 28.7 | 0.00 | 0.00 | 0.00 | 100 | 898.7 |
| 20260904225045 | 67 | 240 | 17.4 | 28.7 | 0.00 | 0.00 | 0.00 | 100 | 898.7 |
| 20260904224938 | 67 | 243 | 16.5 | 28.7 | 0.00 | 0.00 | 0.00 | 100 | 898.6 |
| 20260904224730 | 67 | 247 | 16.5 | 25.2 | 0.00 | 0.00 | 0.00 | 100 | 898.6 |
| 20260904224521 | 67 | 246 | 16.5 | 25.2 | 0.00 | 0.00 | 0.00 | 100 | 898.6 |
| 20260904224323 | 67 | 237 | 16.5 | 26.1 | 0.00 | 0.00 | 0.00 | 100 | 898.6 |
| 20260904224115 | 67 | 234 | 19.1 | 30.4 | 0.00 | 0.00 | 0.00 | 100 | 898.6 |
| 20260904224011 | 67 | 236 | 19.1 | 30.4 | 0.00 | 0.00 | 0.00 | 100 | 898.6 |
| 20260904223905 | 67 | 238 | 18.2 | 30.4 | 0.00 | 0.00 | 0.00 | 100 | 898.6 |
| 20260904223657 | 67 | 241 | 17.4 | 27.8 | 0.00 | 0.00 | 0.00 | 100 | 898.7 |
| 20260904223448 | 67 | 238 | 18.2 | 30.4 | 0.00 | 0.00 | 0.00 | 100 | 898.7 |
| 20260904223239 | 67 | 234 | 17.4 | 30.4 | 0.00 | 0.00 | 0.00 | 100 | 898.8 |
| 20260904223031 | 67 | 235 | 19.1 | 26.1 | 0.00 | 0.00 | 0.00 | 100 | 898.6 |
| 20260904222928 | 67 | 235 | 19.1 | 29.5 | 0.00 | 0.00 | 0.00 | 100 | 898.7 |
| 20260904222821 | 66 | 237 | 18.2 | 29.5 | 0.00 | 0.00 | 0.00 | 100 | 898.8 |
| 20260904222624 | 66 | 236 | 18.2 | 26.1 | 0.00 | 0.00 | 0.00 | 100 | 898.6 |
| 20260904222613 | 67 | 236 | 18.2 | 26.1 | 0.00 | 0.00 | 0.00 | 100 | 898.7 |
| 20260904222415 | 67 | 231 | 18.2 | 30.4 | 0.00 | 0.00 | 0.00 | 100 | 898.7 |
| 20260904222206 | 67 | 229 | 19.1 | 30.4 | 0.00 | 0.00 | 0.00 | 100 | 898.6 |
| 20260904221958 | 67 | 226 | 19.1 | 28.7 | 0.00 | 0.00 | 0.00 | 100 | 898.6 |
| 20260904221855 | 67 | 229 | 17.4 | 28.7 | 0.00 | 0.00 | 0.00 | 100 | 898.7 |
| 20260904221748 | 67 | 227 | 17.4 | 23.5 | 0.00 | 0.00 | 0.00 | 100 | 898.6 |
| 20260904221540 | 67 | 229 | 17.4 | 26.9 | 0.00 | 0.00 | 0.00 | 100 | 898.6 |
| 20260904221343 | 67 | 232 | 17.4 | 26.9 | 0.00 | 0.00 | 0.00 | 100 | 898.7 |
| 20260904221331 | 66 | 232 | 17.4 | 26.9 | 0.00 | 0.00 | 0.00 | 100 | 898.6 |
| 20260904221123 | 66 | 231 | 17.4 | 28.7 | 0.00 | 0.00 | 0.00 | 100 | 898.6 |
| 20260904220914 | 67 | 230 | 18.2 | 28.7 | 0.00 | 0.00 | 0.00 | 100 | 898.8 |
| 20260904220821 | 67 | 231 | 17.4 | 28.7 | 0.00 | 0.00 | 0.00 | 100 | 898.7 |
| 20260904220715 | 67 | 231 | 17.4 | 28.7 | 0.00 | 0.00 | 0.00 | 100 | 898.7 |
| 20260904220506 | 67 | 229 | 17.4 | 28.7 | 0.00 | 0.00 | 0.00 | 100 | 898.8 |
| 20260904220309 | 67 | 230 | 18.2 | 30.4 | 0.00 | 0.00 | 0.00 | 100 | 898.9 |
| 20260904220258 | 67 | 230 | 18.2 | 30.4 | 0.00 | 0.00 | 0.00 | 100 | 898.8 |
| 20260904220049 | 67 | 229 | 20.0 | 30.4 | 0.00 | 0.00 | 0.00 | 100 | 898.8 |
| 20260904215840 | 67 | 228 | 18.2 | 27.8 | 0.00 | 0.00 | 0.00 | 100 | 898.8 |
| 20260904215737 | 67 | 229 | 18.2 | 33.9 | 0.00 | 0.00 | 0.00 | 100 | 898.9 |
| 20260904215630 | 67 | 230 | 19.1 | 33.9 | 0.00 | 0.00 | 0.00 | 100 | 898.9 |
| 20260904215422 | 67 | 226 | 19.1 | 33.9 | 0.00 | 0.00 | 0.00 | 100 | 898.8 |
| 20260904215214 | 67 | 228 | 19.1 | 31.3 | 0.00 | 0.00 | 0.00 | 100 | 898.8 |
| 20260904215015 | 67 | 231 | 19.1 | 30.4 | 0.00 | 0.00 | 0.00 | 100 | 898.9 |
| 20260904214807 | 67 | 227 | 20.0 | 27.8 | 0.00 | 0.00 | 0.00 | 100 | 898.8 |
| 20260904214704 | 67 | 229 | 20.9 | 31.3 | 0.00 | 0.00 | 0.00 | 100 | 898.7 |
| 20260904214557 | 67 | 231 | 20.9 | 31.3 | 0.00 | 0.00 | 0.00 | 100 | 898.9 |
| 20260904214349 | 67 | 232 | 19.1 | 30.4 | 0.00 | 0.00 | 0.00 | 100 | 899.0 |
| 20260904214140 | 67 | 228 | 19.1 | 30.4 | 0.00 | 0.00 | 0.00 | 100 | 898.7 |
| 20260904213936 | 67 | 232 | 20.0 | 33.9 | 0.00 | 0.00 | 0.00 | 100 | 898.8 |
| 20260904213739 | 67 | 230 | 20.9 | 33.9 | 0.00 | 0.00 | 0.00 | 100 | 898.7 |
| 20260904213728 | 67 | 230 | 20.9 | 33.9 | 0.00 | 0.00 | 0.00 | 100 | 898.8 |
| 20260904213624 | 67 | 224 | 20.9 | 33.9 | 0.00 | 0.00 | 0.00 | 100 | 898.8 |
| 20260904213518 | 67 | 225 | 20.9 | 32.2 | 0.00 | 0.00 | 0.00 | 100 | 898.7 |
| 20260904213310 | 66 | 226 | 20.0 | 32.2 | 0.00 | 0.00 | 0.00 | 100 | 898.7 |
| 20260904213101 | 67 | 226 | 20.9 | 31.3 | 0.00 | 0.00 | 0.00 | 100 | 898.6 |
| 20260904212852 | 67 | 227 | 21.7 | 32.2 | 0.00 | 0.00 | 0.00 | 100 | 898.6 |
| 20260904212644 | 67 | 228 | 21.7 | 33.0 | 0.00 | 0.00 | 0.00 | 100 | 898.7 |
| 20260904212541 | 67 | 230 | 21.7 | 33.0 | 0.00 | 0.00 | 0.00 | 100 | 898.7 |
| 20260904212445 | 67 | 234 | 20.9 | 40.0 | 0.00 | 0.00 | 0.00 | 100 | 898.7 |
| 20260904212434 | 67 | 234 | 20.9 | 40.0 | 0.00 | 0.00 | 0.00 | 100 | 898.6 |
| 20260904212226 | 67 | 233 | 23.5 | 40.0 | 0.00 | 0.00 | 0.00 | 100 | 898.7 |
| 20260904212028 | 67 | 230 | 22.6 | 33.0 | 0.00 | 0.00 | 0.00 | 100 | 898.6 |
| 20260904211819 | 67 | 228 | 22.6 | 34.8 | 0.00 | 0.00 | 0.00 | 100 | 898.4 |
| 20260904211611 | 67 | 227 | 22.6 | 34.8 | 0.00 | 0.00 | 0.00 | 100 | 898.4 |
| 20260904211507 | 67 | 223 | 22.6 | 33.9 | 0.00 | 0.00 | 0.00 | 100 | 898.5 |
| 20260904211401 | 67 | 222 | 21.7 | 33.9 | 0.00 | 0.00 | 0.00 | 100 | 898.3 |
| 20260904211204 | 67 | 220 | 22.6 | 38.2 | 0.00 | 0.00 | 0.00 | 100 | 898.3 |
| 20260904211153 | 67 | 220 | 22.6 | 38.2 | 0.00 | 0.00 | 0.00 | 100 | 898.4 |
| 20260904210944 | 67 | 221 | 23.5 | 37.4 | 0.00 | 0.00 | 0.00 | 100 | 898.4 |
| 20260904210735 | 67 | 223 | 23.5 | 37.4 | 0.00 | 0.00 | 0.00 | 100 | 898.5 |
| 20260904210527 | 66 | 225 | 21.7 | 37.4 | 0.00 | 0.00 | 0.00 | 100 | 898.6 |
| 20260904210423 | 66 | 224 | 20.9 | 37.4 | 0.00 | 0.00 | 0.00 | 100 | 898.7 |
| 20260904210327 | 66 | 223 | 20.0 | 32.2 | 0.00 | 0.00 | 0.00 | 100 | 898.6 |
| 20260904210119 | 66 | 226 | 20.0 | 31.3 | 0.00 | 0.00 | 0.00 | 100 | 898.5 |
| 20260904205922 | 66 | 225 | 19.1 | 29.5 | 0.00 | 0.00 | 0.00 | 100 | 898.5 |
| 20260904205911 | 66 | 225 | 19.1 | 29.5 | 0.00 | 0.00 | 0.00 | 100 | 898.6 |
| 20260904205702 | 66 | 224 | 20.0 | 29.5 | 0.00 | 0.00 | 0.00 | 100 | 898.5 |
| 20260904205453 | 67 | 220 | 20.9 | 31.3 | 0.00 | 0.00 | 0.00 | 100 | 898.5 |
| 20260904205350 | 66 | 219 | 20.9 | 39.1 | 0.00 | 0.00 | 0.00 | 100 | 898.4 |
| 20260904205244 | 66 | 212 | 20.9 | 39.1 | 0.00 | 0.00 | 0.00 | 100 | 898.5 |
| 20260904205035 | 67 | 211 | 20.9 | 40.0 | 0.00 | 0.00 | 0.00 | 100 | 898.5 |
| 20260904204827 | 66 | 219 | 18.2 | 32.2 | 0.00 | 0.00 | 0.00 | 100 | 898.5 |
| 20260904204628 | 66 | 226 | 19.1 | 30.4 | 0.00 | 0.00 | 0.00 | 100 | 898.6 |
| 20260904204420 | 66 | 221 | 20.0 | 31.3 | 0.00 | 0.00 | 0.00 | 100 | 898.5 |
| 20260904204316 | 66 | 222 | 19.1 | 33.0 | 0.00 | 0.00 | 0.00 | 100 | 898.6 |
| 20260904204210 | 66 | 224 | 20.9 | 36.5 | 0.00 | 0.00 | 0.00 | 100 | 898.7 |
| 20260904204002 | 67 | 227 | 22.6 | 36.5 | 0.00 | 0.00 | 0.00 | 100 | 898.6 |
| 20260904203753 | 66 | 226 | 21.7 | 32.2 | 0.00 | 0.00 | 0.00 | 100 | 898.5 |
| 20260904203544 | 66 | 222 | 20.9 | 32.2 | 0.00 | 0.00 | 0.00 | 100 | 898.4 |
| 20260904203347 | 66 | 224 | 20.0 | 33.0 | 0.00 | 0.00 | 0.00 | 100 | 898.6 |
| 20260904203336 | 66 | 224 | 20.0 | 33.0 | 0.00 | 0.00 | 0.00 | 100 | 898.5 |
| 20260904203233 | 66 | 225 | 19.1 | 33.0 | 0.00 | 0.00 | 0.00 | 100 | 898.4 |
| 20260904203126 | 66 | 226 | 20.9 | 33.0 | 0.00 | 0.00 | 0.00 | 100 | 898.4 |
| 20260904202928 | 66 | 224 | 21.7 | 33.0 | 0.00 | 0.00 | 0.00 | 100 | 898.6 |
| 20260904202720 | 67 | 224 | 22.6 | 34.8 | 0.00 | 0.00 | 0.00 | 100 | 898.7 |
| 20260904202511 | 67 | 228 | 23.5 | 34.8 | 0.00 | 0.00 | 0.00 | 100 | 898.7 |
| 20260904202305 | 66 | 229 | 21.7 | 34.8 | 0.00 | 0.00 | 0.00 | 100 | 898.6 |
| 20260904202200 | 66 | 227 | 21.7 | 34.8 | 0.00 | 0.00 | 0.00 | 100 | 898.6 |
| 20260904202104 | 66 | 224 | 20.9 | 34.8 | 0.00 | 0.00 | 0.00 | 100 | 898.6 |
| 20260904202053 | 66 | 224 | 20.9 | 34.8 | 0.00 | 0.00 | 0.00 | 100 | 898.7 |
| 20260904201845 | 67 | 222 | 23.5 | 36.5 | 0.00 | 0.00 | 0.00 | 100 | 898.7 |
| 20260904201636 | 67 | 224 | 25.2 | 42.6 | 0.00 | 0.00 | 0.00 | 100 | 898.5 |
| 20260904201427 | 67 | 223 | 23.5 | 42.6 | 0.00 | 0.00 | 0.00 | 100 | 898.5 |
| 20260904201230 | 66 | 225 | 22.6 | 34.8 | 0.00 | 0.00 | 0.00 | 100 | 898.6 |
| 20260904201126 | 66 | 227 | 22.6 | 37.4 | 0.00 | 0.00 | 0.00 | 100 | 898.6 |
| 20260904201031 | 66 | 226 | 23.5 | 38.2 | 0.00 | 0.00 | 0.00 | 100 | 898.6 |
| 20260904201019 | 67 | 226 | 23.5 | 38.2 | 0.00 | 0.00 | 0.00 | 100 | 898.5 |
| 20260904200811 | 67 | 226 | 26.1 | 40.0 | 0.00 | 0.00 | 0.00 | 100 | 898.6 |
| 20260904200602 | 67 | 227 | 27.8 | 46.9 | 0.00 | 0.00 | 0.00 | 100 | 898.6 |
| 20260904200353 | 66 | 227 | 26.1 | 46.9 | 0.00 | 0.00 | 0.00 | 100 | 898.6 |
| 20260904200145 | 66 | 225 | 25.2 | 36.5 | 0.00 | 0.00 | 0.00 | 100 | 898.7 |
| 20260904200042 | 66 | 225 | 24.3 | 36.5 | 0.00 | 0.00 | 0.00 | 100 | 898.8 |
| 20260904195935 | 66 | 226 | 23.5 | 37.4 | 0.00 | 0.00 | 0.00 | 100 | 898.9 |
| 20260904195722 | 67 | 229 | 24.3 | 37.4 | 0.00 | 0.00 | 0.00 | 100 | 899.1 |
| 20260904195524 | 66 | 227 | 22.6 | 35.6 | 0.00 | 0.00 | 0.00 | 100 | 899.1 |
| 20260904195315 | 66 | 227 | 21.7 | 33.9 | 0.00 | 0.00 | 0.00 | 100 | 899.2 |
| 20260904195107 | 66 | 228 | 22.6 | 33.9 | 0.00 | 0.00 | 0.00 | 100 | 899.2 |